UAL606 KMCO-LIMC

Flight info

Callsign UAL606
Flight time 8h 56m
Altitude 35000
Route FATHE4 VIYAP Q87 JROSS Q135 RAPZZ PRONI PUNGO PHITZ DWSEN KW54A PREPI KB63C MONTK VITOL NANSO N55B RAFIN 4550N 4740N 4730N 4720N 4715N SEPAL UN470 LAPEX GALOF PECNO VALKU TIS MEBAK GIPNO BALSI GIGUS MEDAM LAPRI MOGBO TOP M135 ASTIG
Aircraft B77W/H-SDE1E2E3FGHIJ2J3J4J5M1RWXY/LB1D1

Departure

Time 2026-04-25 14:06
Airport Orlando International Airport (KMCO)

Arrival

Time 2026-04-25 23:03
Airport Milan Malpensa International Airport (LIMC)
Time Latitude Longitude Altitude Speed Heading
2026-04-25 12:22 28.42630 -81.31221 106 ft 0 kts 325°
2026-04-25 13:18 28.42627 -81.31219 106 ft 1 kts 325°
2026-04-25 13:18 28.42622 -81.31214 106 ft 1 kts 308°
2026-04-25 13:18 28.42616 -81.31205 109 ft 2 kts 300°
2026-04-25 13:19 28.42611 -81.31193 108 ft 2 kts 289°
2026-04-25 13:19 28.42608 -81.31179 107 ft 2 kts 281°
2026-04-25 13:19 28.42606 -81.31165 107 ft 2 kts 275°
2026-04-25 13:19 28.42605 -81.31161 107 ft 2 kts 270°
2026-04-25 13:20 28.42609 -81.31138 105 ft 2 kts 231°
2026-04-25 13:20 28.42615 -81.31131 105 ft 0 kts 210°
2026-04-25 13:25 28.42611 -81.31133 107 ft 1 kts 210°
2026-04-25 13:25 28.42602 -81.31140 108 ft 4 kts 210°
2026-04-25 13:25 28.42569 -81.31161 107 ft 7 kts 210°
2026-04-25 13:26 28.42538 -81.31182 104 ft 2 kts 211°
2026-04-25 13:26 28.42520 -81.31194 103 ft 0 kts 210°
2026-04-25 13:31 28.42518 -81.31196 103 ft 2 kts 210°
2026-04-25 13:31 28.42499 -81.31208 102 ft 2 kts 211°
2026-04-25 13:32 28.42490 -81.31215 103 ft 2 kts 211°
2026-04-25 13:32 28.42472 -81.31227 102 ft 4 kts 211°
2026-04-25 13:32 28.42438 -81.31252 103 ft 8 kts 213°
2026-04-25 13:32 28.42384 -81.31278 101 ft 9 kts 190°
2026-04-25 13:33 28.42323 -81.31280 100 ft 9 kts 179°
2026-04-25 13:33 28.42276 -81.31317 103 ft 9 kts 244°
2026-04-25 13:33 28.42268 -81.31386 102 ft 9 kts 267°
2026-04-25 13:33 28.42267 -81.31433 103 ft 9 kts 269°
2026-04-25 13:34 28.42266 -81.31526 104 ft 9 kts 270°
2026-04-25 13:34 28.42266 -81.31597 105 ft 9 kts 270°
2026-04-25 13:34 28.42266 -81.31668 106 ft 9 kts 270°
2026-04-25 13:34 28.42266 -81.31737 108 ft 9 kts 269°
2026-04-25 13:35 28.42261 -81.31806 109 ft 9 kts 252°
2026-04-25 13:35 28.42211 -81.31844 110 ft 9 kts 197°
2026-04-25 13:35 28.42152 -81.31864 109 ft 9 kts 193°
2026-04-25 13:35 28.42087 -81.31875 109 ft 10 kts 184°
2026-04-25 13:36 28.42015 -81.31876 108 ft 11 kts 179°
2026-04-25 13:36 28.41940 -81.31875 107 ft 11 kts 180°
2026-04-25 13:36 28.41892 -81.31875 108 ft 4 kts 179°
2026-04-25 13:36 28.41873 -81.31874 108 ft 0 kts 179°
2026-04-25 13:42 28.41861 -81.31874 108 ft 6 kts 179°
2026-04-25 13:42 28.41807 -81.31874 108 ft 8 kts 180°
2026-04-25 13:42 28.41753 -81.31874 107 ft 8 kts 180°
2026-04-25 13:43 28.41703 -81.31892 108 ft 8 kts 228°
2026-04-25 13:43 28.41702 -81.31954 107 ft 8 kts 302°
2026-04-25 13:43 28.41753 -81.31979 108 ft 8 kts 354°
2026-04-25 13:43 28.41811 -81.31981 107 ft 8 kts 359°
2026-04-25 13:44 28.41869 -81.31981 107 ft 8 kts
2026-04-25 13:44 28.41927 -81.31981 108 ft 8 kts 359°
2026-04-25 13:44 28.41985 -81.31983 108 ft 8 kts 359°
2026-04-25 13:44 28.42042 -81.31983 109 ft 8 kts 360°
2026-04-25 13:45 28.42066 -81.31983 110 ft 0 kts 359°
2026-04-25 13:46 28.42068 -81.31983 110 ft 3 kts 359°
2026-04-25 13:46 28.42138 -81.31985 109 ft 18 kts 359°
2026-04-25 13:46 28.42252 -81.31986 112 ft 15 kts 359°
2026-04-25 13:46 28.42357 -81.31987 112 ft 15 kts 359°
2026-04-25 13:47 28.42463 -81.31989 111 ft 15 kts 359°
2026-04-25 13:47 28.42568 -81.31991 112 ft 15 kts 359°
2026-04-25 13:47 28.42672 -81.31993 111 ft 15 kts 359°
2026-04-25 13:47 28.42777 -81.31995 109 ft 15 kts 359°
2026-04-25 13:48 28.42882 -81.31995 108 ft 15 kts
2026-04-25 13:48 28.42988 -81.31994 107 ft 15 kts
2026-04-25 13:48 28.43093 -81.31994 106 ft 15 kts 359°
2026-04-25 13:48 28.43198 -81.31997 106 ft 15 kts 359°
2026-04-25 13:49 28.43304 -81.31998 107 ft 15 kts 360°
2026-04-25 13:49 28.43408 -81.31998 107 ft 15 kts 360°
2026-04-25 13:49 28.43513 -81.31999 109 ft 15 kts 359°
2026-04-25 13:49 28.43618 -81.32000 109 ft 15 kts 360°
2026-04-25 13:50 28.43723 -81.32002 111 ft 15 kts 359°
2026-04-25 13:50 28.43828 -81.32005 112 ft 13 kts 359°
2026-04-25 13:50 28.43904 -81.32007 111 ft 11 kts 359°
2026-04-25 13:50 28.43960 -81.31966 111 ft 11 kts 81°
2026-04-25 13:51 28.43933 -81.31882 112 ft 12 kts 113°
2026-04-25 13:51 28.43924 -81.31784 108 ft 13 kts 90°
2026-04-25 13:51 28.43924 -81.31674 109 ft 14 kts 90°
2026-04-25 13:51 28.43924 -81.31564 108 ft 14 kts 89°
2026-04-25 13:52 28.43925 -81.31452 107 ft 14 kts 89°
2026-04-25 13:52 28.43926 -81.31340 108 ft 14 kts 89°
2026-04-25 13:52 28.43935 -81.31229 115 ft 14 kts 84°
2026-04-25 13:52 28.43940 -81.31118 118 ft 14 kts 88°
2026-04-25 13:53 28.43944 -81.30994 109 ft 23 kts 90°
2026-04-25 13:53 28.43941 -81.30795 123 ft 26 kts 95°
2026-04-25 13:53 28.43930 -81.30628 122 ft 15 kts 93°
2026-04-25 13:53 28.43921 -81.30489 104 ft 17 kts 93°
2026-04-25 13:54 28.43915 -81.30353 107 ft 17 kts 93°
2026-04-25 13:54 28.43910 -81.30247 108 ft 11 kts 93°
2026-04-25 13:54 28.43910 -81.30243 108 ft 0 kts 93°
2026-04-25 13:55 28.43909 -81.30242 108 ft 1 kts 93°
2026-04-25 13:55 28.43909 -81.30226 108 ft 3 kts 94°
2026-04-25 13:55 28.43906 -81.30185 108 ft 7 kts 93°
2026-04-25 13:55 28.43903 -81.30120 107 ft 9 kts 93°
2026-04-25 13:56 28.43899 -81.30042 108 ft 10 kts 93°
2026-04-25 13:56 28.43883 -81.29956 108 ft 12 kts 110°
2026-04-25 13:56 28.43833 -81.29877 108 ft 13 kts 135°
2026-04-25 13:56 28.43753 -81.29821 108 ft 14 kts 161°
2026-04-25 13:57 28.43686 -81.29808 108 ft 0 kts 176°
2026-04-25 14:03 28.43685 -81.29808 108 ft 0 kts 176°
2026-04-25 14:03 28.43667 -81.29807 108 ft 5 kts 178°
2026-04-25 14:03 28.43631 -81.29805 109 ft 5 kts 178°
2026-04-25 14:03 28.43589 -81.29802 109 ft 7 kts 167°
2026-04-25 14:04 28.43563 -81.29759 108 ft 8 kts 83°
2026-04-25 14:04 28.43557 -81.29688 108 ft 10 kts 97°
2026-04-25 14:04 28.43544 -81.29615 108 ft 10 kts 122°
2026-04-25 14:04 28.43482 -81.29588 110 ft 6 kts 176°
2026-04-25 14:05 28.43480 -81.29588 110 ft 0 kts 176°
2026-04-25 14:05 28.43478 -81.29588 110 ft 3 kts 176°
2026-04-25 14:05 28.43331 -81.29585 111 ft 52 kts 179°
2026-04-25 14:06 28.42669 -81.29578 108 ft 137 kts 179°
2026-04-25 14:06 28.41477 -81.29555 174 ft 197 kts 179°
2026-04-25 14:06 28.40005 -81.29518 662 ft 211 kts 178°
2026-04-25 14:06 28.38546 -81.29333 1623 ft 217 kts 163°
2026-04-25 14:07 28.37129 -81.28487 2118 ft 241 kts 148°
2026-04-25 14:07 28.35711 -81.27431 3018 ft 246 kts 147°
2026-04-25 14:07 28.34474 -81.26074 3755 ft 254 kts 117°
2026-04-25 14:07 28.34148 -81.24115 4575 ft 258 kts 81°
2026-04-25 14:08 28.34828 -81.22248 5478 ft 259 kts 52°
2026-04-25 14:08 28.36204 -81.20933 6333 ft 262 kts 25°
2026-04-25 14:08 28.37956 -81.20497 7104 ft 263 kts 357°
2026-04-25 14:08 28.39787 -81.20745 7809 ft 267 kts 350°
2026-04-25 14:09 28.41619 -81.21081 8665 ft 267 kts 349°
2026-04-25 14:09 28.43463 -81.21434 9424 ft 270 kts 349°
2026-04-25 14:09 28.45334 -81.21793 10159 ft 273 kts 349°
2026-04-25 14:09 28.45947 -81.21909 10393 ft 273 kts 349°
2026-04-25 14:10 28.49104 -81.22502 11516 ft 277 kts 349°
2026-04-25 14:10 28.51013 -81.22855 12023 ft 287 kts 349°
2026-04-25 14:10 28.53058 -81.23232 12248 ft 310 kts 349°
2026-04-25 14:10 28.55275 -81.23637 12450 ft 333 kts 349°
2026-04-25 14:11 28.57649 -81.24069 12643 ft 357 kts 349°
2026-04-25 14:11 28.60165 -81.24524 13053 ft 372 kts 349°
2026-04-25 14:11 28.62718 -81.24984 13682 ft 380 kts 349°
2026-04-25 14:11 28.65360 -81.25458 14360 ft 385 kts 349°
2026-04-25 14:12 28.68019 -81.25937 15081 ft 389 kts 349°
2026-04-25 14:12 28.70714 -81.26422 15831 ft 393 kts 349°
2026-04-25 14:12 28.73441 -81.26915 16558 ft 398 kts 349°
2026-04-25 14:12 28.76197 -81.27413 17274 ft 402 kts 349°
2026-04-25 14:13 28.78984 -81.27916 17971 ft 407 kts 349°
2026-04-25 14:13 28.81801 -81.28426 18608 ft 412 kts 349°
2026-04-25 14:13 28.84657 -81.28905 19251 ft 416 kts 352°
2026-04-25 14:13 28.87551 -81.29175 19931 ft 419 kts 354°
2026-04-25 14:14 28.90433 -81.29402 20582 ft 422 kts 354°
2026-04-25 14:14 28.93375 -81.29635 21236 ft 425 kts 354°
2026-04-25 14:14 28.96342 -81.29882 21833 ft 428 kts 354°
2026-04-25 14:14 28.99326 -81.30138 22448 ft 432 kts 353°
2026-04-25 14:15 29.02343 -81.30450 23058 ft 435 kts 353°
2026-04-25 14:15 29.03322 -81.30563 23254 ft 436 kts 352°
2026-04-25 14:15 29.08378 -81.31150 24103 ft 442 kts 353°
2026-04-25 14:15 29.11452 -81.31493 24579 ft 445 kts 354°
2026-04-25 14:16 29.14554 -81.31742 25061 ft 449 kts 355°
2026-04-25 14:16 29.17694 -81.31921 25527 ft 452 kts 356°
2026-04-25 14:16 29.20849 -81.32077 25993 ft 455 kts 356°
2026-04-25 14:16 29.24017 -81.32237 26449 ft 458 kts 356°
2026-04-25 14:17 29.27217 -81.32409 26890 ft 461 kts 356°
2026-04-25 14:17 29.30430 -81.32591 27323 ft 464 kts 356°
2026-04-25 14:17 29.33674 -81.32783 27755 ft 467 kts 356°
2026-04-25 14:17 29.36895 -81.32977 28182 ft 469 kts 356°
2026-04-25 14:18 29.40172 -81.33177 28575 ft 472 kts 356°
2026-04-25 14:18 29.43470 -81.33376 28947 ft 474 kts 356°
2026-04-25 14:18 29.46782 -81.33577 29312 ft 477 kts 357°
2026-04-25 14:18 29.50097 -81.33778 29668 ft 479 kts 357°
2026-04-25 14:19 29.52314 -81.33911 29874 ft 481 kts 357°
2026-04-25 14:19 29.55658 -81.34113 30225 ft 481 kts 357°
2026-04-25 14:19 29.58997 -81.34315 30612 ft 480 kts 357°
2026-04-25 14:19 29.62335 -81.34517 31009 ft 479 kts 357°
2026-04-25 14:20 29.65653 -81.34716 31368 ft 478 kts 357°
2026-04-25 14:20 29.67860 -81.34845 31590 ft 478 kts 357°
2026-04-25 14:20 29.72311 -81.35100 32045 ft 477 kts 357°
2026-04-25 14:20 29.75628 -81.35287 32396 ft 477 kts 357°
2026-04-25 14:21 29.78935 -81.35475 32740 ft 476 kts 357°
2026-04-25 14:21 29.82221 -81.35662 32914 ft 479 kts 357°
2026-04-25 14:21 29.85559 -81.35854 32951 ft 482 kts 357°
2026-04-25 14:22 29.92313 -81.36241 32965 ft 486 kts 357°
2026-04-25 14:22 29.99011 -81.36626 32964 ft 483 kts 357°
2026-04-25 14:23 30.05708 -81.37013 32980 ft 481 kts 357°
2026-04-25 14:23 30.12385 -81.37398 32969 ft 480 kts 357°
2026-04-25 14:24 30.19060 -81.37784 32974 ft 480 kts 357°
2026-04-25 14:24 30.25747 -81.38171 32974 ft 481 kts 357°
2026-04-25 14:25 30.32451 -81.38559 32961 ft 481 kts 357°
2026-04-25 14:25 30.39149 -81.38948 32965 ft 481 kts 357°
2026-04-25 14:26 30.45799 -81.39334 32963 ft 481 kts 356°
2026-04-25 14:26 30.52495 -81.39702 32971 ft 481 kts 357°
2026-04-25 14:27 30.59197 -81.40053 32972 ft 481 kts 357°
2026-04-25 14:27 30.65851 -81.40405 32974 ft 481 kts 357°
2026-04-25 14:28 30.72539 -81.40763 32969 ft 481 kts 357°
2026-04-25 14:28 30.79243 -81.41122 32969 ft 481 kts 357°
2026-04-25 14:29 30.85932 -81.41482 32966 ft 481 kts 357°
2026-04-25 14:29 30.92586 -81.41839 32959 ft 481 kts 357°
2026-04-25 14:30 30.99278 -81.42200 32955 ft 480 kts 357°
2026-04-25 14:30 31.09291 -81.42740 32953 ft 480 kts 357°
2026-04-25 14:31 31.15974 -81.43101 32954 ft 480 kts 357°
2026-04-25 14:31 31.22614 -81.43187 32956 ft 481 kts
2026-04-25 14:32 31.29152 -81.41484 32971 ft 483 kts 18°
2026-04-25 14:32 31.35185 -81.38336 32941 ft 461 kts 24°
2026-04-25 14:33 31.38031 -81.36732 32938 ft 446 kts 24°
2026-04-25 14:33 31.40820 -81.35169 32955 ft 443 kts 24°
2026-04-25 14:33 31.46394 -81.32097 32960 ft 442 kts 23°
2026-04-25 14:34 31.51957 -81.29067 32954 ft 442 kts 23°
2026-04-25 14:34 31.57540 -81.26026 32946 ft 442 kts 23°
2026-04-25 14:35 31.63127 -81.22975 32943 ft 443 kts 23°
2026-04-25 14:35 31.68721 -81.19917 32934 ft 443 kts 23°
2026-04-25 14:36 31.74286 -81.16873 32924 ft 444 kts 23°
2026-04-25 14:36 31.79890 -81.13803 32919 ft 444 kts 24°
2026-04-25 14:37 31.85494 -81.10727 32921 ft 445 kts 24°
2026-04-25 14:37 31.91107 -81.07642 32917 ft 444 kts 24°
2026-04-25 14:38 31.96706 -81.04561 32917 ft 444 kts 24°
2026-04-25 14:38 32.02281 -81.01483 32916 ft 444 kts 24°
2026-04-25 14:39 32.07867 -80.98361 32916 ft 444 kts 24°
2026-04-25 14:39 32.13446 -80.95232 32915 ft 444 kts 24°
2026-04-25 14:40 32.19029 -80.92100 32944 ft 444 kts 24°
2026-04-25 14:40 32.24623 -80.88960 32946 ft 444 kts 24°
2026-04-25 14:41 32.30174 -80.85838 32952 ft 444 kts 24°
2026-04-25 14:41 32.35768 -80.82691 32944 ft 445 kts 24°
2026-04-25 14:42 32.40421 -80.80069 32944 ft 445 kts 24°
2026-04-25 14:42 32.46953 -80.76382 32949 ft 445 kts 24°
2026-04-25 14:43 32.52523 -80.73234 32948 ft 446 kts 24°
2026-04-25 14:43 32.58133 -80.70058 32941 ft 446 kts 24°
2026-04-25 14:44 32.63738 -80.66881 32936 ft 446 kts 24°
2026-04-25 14:44 32.69245 -80.63503 32933 ft 447 kts 33°
2026-04-25 14:45 32.74032 -80.58857 32952 ft 449 kts 45°
2026-04-25 14:45 32.78178 -80.53299 32953 ft 450 kts 48°
2026-04-25 14:46 32.82268 -80.47664 32953 ft 450 kts 48°
2026-04-25 14:46 32.86386 -80.42032 32946 ft 451 kts 47°
2026-04-25 14:47 32.89819 -80.37362 32928 ft 451 kts 47°
2026-04-25 14:47 32.94661 -80.30775 32917 ft 452 kts 47°
2026-04-25 14:48 32.98781 -80.25168 32956 ft 452 kts 47°
2026-04-25 14:48 33.02925 -80.19523 32923 ft 453 kts 48°
2026-04-25 14:49 33.07080 -80.13847 32924 ft 453 kts 48°
2026-04-25 14:49 33.11219 -80.08187 32952 ft 451 kts 48°
2026-04-25 14:50 33.15318 -80.02566 32937 ft 451 kts 48°
2026-04-25 14:50 33.19430 -79.96920 32937 ft 450 kts 48°
2026-04-25 14:51 33.23531 -79.91282 32939 ft 449 kts 48°
2026-04-25 14:51 33.27629 -79.85644 32935 ft 449 kts 48°
2026-04-25 14:52 33.31718 -79.80001 32935 ft 449 kts 48°
2026-04-25 14:52 33.35117 -79.75309 32933 ft 450 kts 48°
2026-04-25 14:53 33.39898 -79.68698 32940 ft 451 kts 48°
2026-04-25 14:53 33.44011 -79.63003 32952 ft 454 kts 48°
2026-04-25 14:54 33.46087 -79.60123 33293 ft 455 kts 48°
2026-04-25 14:54 33.48149 -79.57260 33813 ft 452 kts 48°
2026-04-25 14:54 33.50193 -79.54420 34236 ft 449 kts 48°
2026-04-25 14:54 33.52233 -79.51583 34587 ft 449 kts 48°
2026-04-25 14:55 33.54276 -79.48740 34774 ft 453 kts 48°
2026-04-25 14:55 33.56345 -79.45860 34847 ft 459 kts 48°
2026-04-25 14:55 33.60554 -79.39991 34934 ft 469 kts 48°
2026-04-25 14:56 33.64818 -79.34035 34932 ft 468 kts 48°
2026-04-25 14:56 33.69019 -79.28158 34929 ft 465 kts 48°
2026-04-25 14:57 33.73230 -79.22262 34937 ft 463 kts 48°
2026-04-25 14:57 33.77410 -79.16399 34946 ft 461 kts 48°
2026-04-25 14:58 33.81584 -79.10535 34936 ft 461 kts 48°
2026-04-25 14:58 33.85750 -79.04672 34945 ft 461 kts 48°
2026-04-25 14:59 33.89900 -78.98823 34947 ft 462 kts 48°
2026-04-25 14:59 33.94080 -78.92921 34944 ft 463 kts 48°
2026-04-25 15:00 33.98266 -78.86997 34937 ft 464 kts 48°
2026-04-25 15:00 34.02456 -78.81063 34937 ft 465 kts 49°
2026-04-25 15:01 34.06619 -78.75155 34931 ft 465 kts 49°
2026-04-25 15:01 34.10816 -78.69187 34931 ft 465 kts 48°
2026-04-25 15:02 34.15000 -78.63227 34942 ft 465 kts 49°
2026-04-25 15:02 34.19179 -78.57266 34954 ft 464 kts 49°
2026-04-25 15:03 34.23313 -78.51324 34953 ft 464 kts 51°
2026-04-25 15:03 34.26766 -78.44728 34941 ft 465 kts 63°
2026-04-25 15:04 34.29480 -78.37621 34931 ft 465 kts 64°
2026-04-25 15:04 34.32146 -78.30527 34925 ft 465 kts 64°
2026-04-25 15:05 34.34856 -78.23394 34925 ft 466 kts 64°
2026-04-25 15:06 34.38478 -78.13917 34938 ft 466 kts 64°
2026-04-25 15:06 34.41194 -78.06795 34921 ft 466 kts 64°
2026-04-25 15:07 34.43894 -77.99697 34920 ft 466 kts 64°
2026-04-25 15:07 34.46601 -77.92561 34945 ft 465 kts 64°
2026-04-25 15:08 34.49304 -77.85425 34928 ft 465 kts 64°
2026-04-25 15:08 34.52000 -77.78288 34930 ft 465 kts 64°
2026-04-25 15:09 34.54736 -77.71194 34928 ft 464 kts 59°
2026-04-25 15:09 34.60620 -77.62046 34934 ft 460 kts 42°
2026-04-25 15:10 34.65296 -77.56741 34933 ft 460 kts 41°
2026-04-25 15:11 34.72339 -77.48772 34938 ft 461 kts 42°
2026-04-25 15:11 34.76992 -77.43435 34936 ft 462 kts 42°
2026-04-25 15:12 34.84003 -77.35346 34937 ft 463 kts 42°
2026-04-25 15:12 34.87886 -77.30859 34938 ft 463 kts 42°
2026-04-25 15:13 34.95657 -77.21865 34924 ft 463 kts 42°
2026-04-25 15:14 35.00329 -77.16441 34931 ft 463 kts 42°
2026-04-25 15:14 35.04999 -77.11014 34940 ft 463 kts 42°
2026-04-25 15:15 35.09670 -77.05578 34929 ft 463 kts 42°
2026-04-25 15:15 35.14343 -77.00131 34929 ft 464 kts 42°
2026-04-25 15:16 35.18984 -76.94710 34931 ft 464 kts 42°
2026-04-25 15:16 35.25984 -76.86518 34934 ft 464 kts 42°
2026-04-25 15:17 35.32992 -76.78295 34913 ft 466 kts 42°
2026-04-25 15:18 35.37673 -76.72790 34911 ft 466 kts 42°
2026-04-25 15:18 35.44671 -76.64545 34909 ft 467 kts 41°
2026-04-25 15:19 35.48562 -76.59951 34911 ft 468 kts 41°
2026-04-25 15:19 35.54050 -76.53460 34900 ft 468 kts 41°
2026-04-25 15:20 35.58723 -76.47922 34905 ft 469 kts 41°
2026-04-25 15:20 35.63675 -76.42749 34896 ft 465 kts 32°
2026-04-25 15:21 35.68975 -76.38241 34899 ft 465 kts 31°
2026-04-25 15:21 35.74315 -76.33724 34900 ft 465 kts 32°
2026-04-25 15:22 35.79632 -76.29168 34900 ft 466 kts 32°
2026-04-25 15:22 35.84940 -76.24586 34900 ft 466 kts 32°
2026-04-25 15:23 35.90250 -76.19991 34900 ft 466 kts 32°
2026-04-25 15:23 35.95560 -76.15389 34890 ft 466 kts 32°
2026-04-25 15:24 36.00874 -76.10777 34895 ft 466 kts 32°
2026-04-25 15:24 36.05281 -76.06947 34895 ft 466 kts 32°
2026-04-25 15:25 36.11445 -76.01580 34897 ft 465 kts 31°
2026-04-25 15:25 36.16409 -75.97250 34896 ft 465 kts 31°
2026-04-25 15:26 36.21696 -75.92632 34898 ft 465 kts 31°
2026-04-25 15:26 36.26971 -75.88037 34907 ft 466 kts 30°
2026-04-25 15:27 36.32633 -75.83912 34914 ft 478 kts 25°
2026-04-25 15:28 36.41469 -75.77758 34908 ft 490 kts 25°
2026-04-25 15:28 36.47383 -75.73591 34902 ft 493 kts 25°
2026-04-25 15:29 36.53348 -75.69360 34901 ft 494 kts 25°
2026-04-25 15:29 36.59316 -75.65116 34896 ft 493 kts 25°
2026-04-25 15:30 36.65272 -75.60875 34897 ft 492 kts 25°
2026-04-25 15:30 36.71209 -75.56644 34897 ft 490 kts 25°
2026-04-25 15:31 36.77124 -75.52420 34898 ft 489 kts 25°
2026-04-25 15:31 36.83031 -75.48194 34899 ft 489 kts 25°
2026-04-25 15:32 36.88907 -75.43984 34902 ft 491 kts 25°
2026-04-25 15:32 36.94876 -75.39703 34913 ft 498 kts 25°
2026-04-25 15:33 37.03933 -75.33184 34913 ft 502 kts 25°
2026-04-25 15:33 37.10000 -75.28806 34910 ft 502 kts 25°
2026-04-25 15:34 37.16000 -75.24468 34913 ft 500 kts 25°
2026-04-25 15:34 37.21003 -75.20846 34915 ft 498 kts 25°
2026-04-25 15:35 37.31000 -75.13593 34922 ft 496 kts 25°
2026-04-25 15:36 37.39910 -75.07110 34926 ft 495 kts 25°
2026-04-25 15:36 37.45911 -75.02733 34915 ft 496 kts 25°
2026-04-25 15:37 37.51880 -74.98371 34922 ft 496 kts 25°
2026-04-25 15:37 37.57854 -74.93997 34932 ft 497 kts 25°
2026-04-25 15:38 37.63842 -74.89630 34939 ft 496 kts 23°
2026-04-25 15:38 37.69928 -74.85617 34942 ft 495 kts 21°
2026-04-25 15:39 37.76088 -74.81700 34946 ft 495 kts 21°
2026-04-25 15:39 37.82239 -74.77761 34949 ft 496 kts 21°
2026-04-25 15:40 37.86310 -74.75129 34953 ft 496 kts 21°
2026-04-25 15:40 37.94484 -74.69814 34962 ft 496 kts 21°
2026-04-25 15:41 38.00636 -74.65804 34966 ft 496 kts 21°
2026-04-25 15:41 38.06773 -74.61798 34968 ft 495 kts 21°
2026-04-25 15:42 38.12905 -74.57789 34975 ft 495 kts 21°
2026-04-25 15:42 38.19034 -74.53774 34986 ft 495 kts 21°
2026-04-25 15:43 38.25130 -74.49774 34989 ft 495 kts 21°
2026-04-25 15:43 38.31248 -74.45751 34996 ft 495 kts 21°
2026-04-25 15:44 38.37371 -74.41717 34997 ft 495 kts 21°
2026-04-25 15:44 38.43484 -74.37681 35000 ft 494 kts 21°
2026-04-25 15:45 38.49549 -74.33670 35008 ft 494 kts 21°
2026-04-25 15:45 38.53643 -74.30959 35010 ft 494 kts 21°
2026-04-25 15:46 38.61766 -74.25567 35022 ft 494 kts 21°
2026-04-25 15:46 38.67861 -74.21513 35013 ft 494 kts 21°
2026-04-25 15:47 38.73964 -74.17445 35021 ft 493 kts 21°
2026-04-25 15:47 38.80024 -74.13398 35028 ft 493 kts 21°
2026-04-25 15:48 38.86108 -74.09327 35032 ft 493 kts 21°
2026-04-25 15:48 38.92208 -74.05238 35037 ft 493 kts 21°
2026-04-25 15:49 38.98293 -74.01150 35044 ft 493 kts 21°
2026-04-25 15:49 39.04155 -73.96438 35049 ft 500 kts 28°
2026-04-25 15:50 39.09801 -73.91280 35060 ft 501 kts 28°
2026-04-25 15:50 39.15474 -73.86083 35052 ft 501 kts 28°
2026-04-25 15:51 39.19292 -73.82613 35060 ft 500 kts 28°
2026-04-25 15:51 39.26867 -73.75754 35064 ft 499 kts 28°
2026-04-25 15:52 39.32523 -73.70626 35084 ft 499 kts 28°
2026-04-25 15:52 39.38217 -73.65449 35079 ft 500 kts 28°
2026-04-25 15:53 39.42948 -73.61137 35069 ft 499 kts 28°
2026-04-25 15:53 39.48631 -73.55949 35089 ft 499 kts 28°
2026-04-25 15:54 39.55215 -73.49925 35087 ft 498 kts 28°
2026-04-25 15:54 39.59912 -73.45619 35091 ft 497 kts 28°
2026-04-25 15:55 39.65562 -73.40429 35093 ft 497 kts 28°
2026-04-25 15:55 39.71204 -73.35236 35102 ft 496 kts 28°
2026-04-25 15:56 39.76833 -73.30043 35101 ft 496 kts 29°
2026-04-25 15:56 39.82028 -73.24062 35109 ft 508 kts 40°
2026-04-25 15:57 39.86448 -73.16785 35116 ft 515 kts 48°
2026-04-25 15:57 39.90592 -73.09161 35108 ft 515 kts 48°
2026-04-25 15:58 39.94723 -73.01572 35105 ft 512 kts 48°
2026-04-25 15:58 39.98866 -72.94042 35116 ft 509 kts 47°
2026-04-25 15:59 40.02998 -72.86554 35118 ft 507 kts 47°
2026-04-25 15:59 40.07083 -72.79134 35129 ft 506 kts 47°
2026-04-25 16:00 40.10519 -72.72875 35114 ft 506 kts 47°
2026-04-25 16:00 40.15276 -72.64186 35132 ft 506 kts 47°
2026-04-25 16:01 40.19366 -72.56695 35133 ft 506 kts 47°
2026-04-25 16:01 40.23457 -72.49185 35143 ft 507 kts 47°
2026-04-25 16:02 40.27549 -72.41652 35149 ft 507 kts 47°
2026-04-25 16:02 40.31616 -72.34148 35154 ft 508 kts 47°
2026-04-25 16:03 40.35709 -72.26578 35148 ft 508 kts 47°
2026-04-25 16:03 40.39793 -72.19008 35140 ft 508 kts 47°
2026-04-25 16:04 40.43857 -72.11453 35140 ft 507 kts 47°
2026-04-25 16:04 40.47933 -72.03862 35155 ft 507 kts 47°
2026-04-25 16:05 40.51512 -71.95754 35128 ft 520 kts 59°
2026-04-25 16:06 40.55692 -71.82596 35145 ft 522 kts 60°
2026-04-25 16:06 40.58482 -71.73765 35151 ft 522 kts 60°
2026-04-25 16:07 40.61302 -71.64966 35160 ft 522 kts 60°
2026-04-25 16:07 40.64135 -71.56140 35162 ft 522 kts 60°
2026-04-25 16:08 40.66938 -71.47373 35169 ft 522 kts 60°
2026-04-25 16:08 40.69768 -71.38481 35161 ft 522 kts 60°
2026-04-25 16:09 40.72547 -71.29717 35160 ft 521 kts 60°
2026-04-25 16:09 40.75337 -71.20894 35152 ft 520 kts 60°
2026-04-25 16:10 40.78119 -71.12067 35159 ft 519 kts 59°
2026-04-25 16:10 40.80885 -71.03268 35150 ft 518 kts 59°
2026-04-25 16:11 40.83421 -70.94309 35159 ft 521 kts 63°
2026-04-25 16:11 40.85743 -70.85288 35153 ft 522 kts 63°
2026-04-25 16:12 40.88066 -70.76186 35152 ft 521 kts 63°
2026-04-25 16:12 40.90399 -70.67123 35153 ft 521 kts 63°
2026-04-25 16:13 40.92741 -70.58058 35150 ft 521 kts 63°
2026-04-25 16:13 40.95065 -70.49039 35146 ft 521 kts 63°
2026-04-25 16:14 40.97393 -70.39961 35151 ft 521 kts 63°
2026-04-25 16:14 40.99719 -70.30854 35150 ft 521 kts 63°
2026-04-25 16:15 41.02034 -70.21750 35154 ft 521 kts 63°
2026-04-25 16:15 41.04338 -70.12654 35154 ft 521 kts 63°
2026-04-25 16:16 41.06641 -70.03531 35158 ft 521 kts 63°
2026-04-25 16:16 41.08923 -69.94453 35152 ft 521 kts 63°
2026-04-25 16:17 41.11208 -69.85331 35152 ft 521 kts 63°
2026-04-25 16:17 41.13487 -69.76202 35154 ft 521 kts 63°
2026-04-25 16:18 41.15757 -69.67069 35156 ft 521 kts 63°
2026-04-25 16:18 41.18025 -69.57910 35154 ft 522 kts 63°
2026-04-25 16:19 41.20272 -69.48801 35152 ft 522 kts 63°
2026-04-25 16:19 41.22525 -69.39631 35152 ft 522 kts 63°
2026-04-25 16:20 41.25892 -69.25859 35150 ft 522 kts 63°
2026-04-25 16:21 41.29243 -69.12070 35154 ft 522 kts 63°
2026-04-25 16:21 41.31453 -69.02928 35144 ft 522 kts 63°
2026-04-25 16:22 41.33671 -68.93720 35144 ft 522 kts 63°
2026-04-25 16:22 41.35877 -68.84526 35138 ft 521 kts 63°
2026-04-25 16:23 41.38076 -68.75322 35144 ft 521 kts 63°
2026-04-25 16:23 41.40266 -68.66123 35139 ft 521 kts 63°
2026-04-25 16:24 41.42452 -68.56900 35140 ft 521 kts 63°
2026-04-25 16:24 41.44618 -68.47730 35133 ft 521 kts 63°
2026-04-25 16:25 41.46788 -68.38500 35125 ft 521 kts 63°
2026-04-25 16:25 41.48957 -68.29238 35124 ft 521 kts 63°
2026-04-25 16:26 41.51100 -68.20052 35127 ft 522 kts 63°
2026-04-25 16:26 41.53254 -68.10780 35121 ft 522 kts 63°
2026-04-25 16:27 41.55395 -68.01524 35123 ft 522 kts 63°
2026-04-25 16:27 41.57532 -67.92245 35119 ft 522 kts 63°
2026-04-25 16:28 41.59662 -67.82958 35122 ft 523 kts 63°
2026-04-25 16:28 41.61775 -67.73711 35119 ft 523 kts 63°
2026-04-25 16:29 41.63906 -67.64342 35121 ft 524 kts 64°
2026-04-25 16:29 41.66007 -67.55070 35112 ft 524 kts 64°
2026-04-25 16:30 41.68117 -67.45716 35117 ft 524 kts 64°
2026-04-25 16:30 41.70217 -67.36368 35112 ft 525 kts 64°
2026-04-25 16:31 41.72298 -67.27061 35100 ft 525 kts 64°
2026-04-25 16:31 41.74388 -67.17677 35104 ft 525 kts 64°
2026-04-25 16:32 41.76476 -67.08267 35107 ft 526 kts 65°
2026-04-25 16:32 41.78601 -66.98904 35096 ft 522 kts 62°
2026-04-25 16:33 41.81288 -66.89929 35099 ft 517 kts 58°
2026-04-25 16:33 41.84058 -66.81088 35096 ft 517 kts 58°
2026-04-25 16:34 41.86825 -66.72156 35090 ft 518 kts 59°
2026-04-25 16:34 41.89568 -66.63167 35086 ft 519 kts 59°
2026-04-25 16:35 41.92269 -66.54244 35088 ft 519 kts 60°
2026-04-25 16:35 41.94985 -66.45239 35072 ft 519 kts 60°
2026-04-25 16:36 41.97689 -66.36248 35078 ft 519 kts 60°
2026-04-25 16:36 42.00378 -66.27284 35069 ft 519 kts 60°
2026-04-25 16:37 42.03071 -66.18275 35078 ft 519 kts 61°
2026-04-25 16:37 42.05759 -66.09251 35067 ft 519 kts 61°
2026-04-25 16:38 42.08448 -66.00194 35059 ft 520 kts 62°
2026-04-25 16:38 42.11110 -65.91192 35051 ft 520 kts 62°
2026-04-25 16:39 42.13334 -65.83649 35040 ft 520 kts 62°
2026-04-25 16:39 42.15997 -65.74586 35046 ft 520 kts 62°
2026-04-25 16:40 42.18653 -65.65517 35050 ft 520 kts 62°
2026-04-25 16:40 42.21304 -65.56435 35045 ft 520 kts 63°
2026-04-25 16:41 42.24377 -65.45864 35038 ft 520 kts 63°
2026-04-25 16:41 42.27885 -65.33743 35039 ft 520 kts 63°
2026-04-25 16:42 42.30513 -65.24624 35031 ft 520 kts 63°
2026-04-25 16:42 42.33129 -65.15513 35027 ft 520 kts 64°
2026-04-25 16:43 42.35739 -65.06393 35021 ft 520 kts 64°
2026-04-25 16:43 42.38340 -64.97272 35024 ft 520 kts 64°
2026-04-25 16:44 42.40938 -64.88126 35014 ft 520 kts 64°
2026-04-25 16:44 42.43527 -64.78982 35012 ft 520 kts 64°
2026-04-25 16:45 42.46095 -64.69877 35003 ft 520 kts 64°
2026-04-25 16:45 42.48671 -64.60709 35004 ft 520 kts 65°
2026-04-25 16:46 42.51242 -64.51527 34998 ft 521 kts 65°
2026-04-25 16:46 42.53372 -64.43893 34992 ft 521 kts 65°
2026-04-25 16:47 42.56346 -64.33196 34989 ft 521 kts 65°
2026-04-25 16:47 42.58902 -64.23965 34992 ft 522 kts 65°
2026-04-25 16:48 42.61451 -64.14728 34987 ft 522 kts 65°
2026-04-25 16:48 42.63976 -64.05538 34984 ft 522 kts 66°
2026-04-25 16:49 42.66507 -63.96297 34969 ft 521 kts 66°
2026-04-25 16:49 42.69027 -63.87059 34971 ft 521 kts 66°
2026-04-25 16:50 42.71537 -63.77822 34966 ft 521 kts 66°
2026-04-25 16:50 42.74041 -63.68574 34964 ft 521 kts 66°
2026-04-25 16:51 42.76541 -63.59307 34958 ft 521 kts 66°
2026-04-25 16:51 42.78608 -63.51615 34958 ft 520 kts 66°
2026-04-25 16:52 42.81496 -63.40831 34949 ft 520 kts 67°
2026-04-25 16:52 42.83970 -63.31554 34950 ft 520 kts 67°
2026-04-25 16:53 42.87654 -63.17672 34936 ft 520 kts 67°
2026-04-25 16:54 42.90109 -63.08377 34938 ft 521 kts 67°
2026-04-25 16:54 42.92556 -62.99079 34922 ft 521 kts 68°
2026-04-25 16:55 42.94997 -62.89763 34921 ft 521 kts 68°
2026-04-25 16:55 42.97430 -62.80447 34919 ft 521 kts 68°
2026-04-25 16:56 42.99854 -62.71125 34916 ft 521 kts 68°
2026-04-25 16:56 43.02258 -62.61844 34916 ft 521 kts 68°
2026-04-25 16:57 43.04665 -62.52514 34910 ft 521 kts 68°
2026-04-25 16:57 43.07068 -62.43165 34901 ft 521 kts 68°
2026-04-25 16:58 43.09464 -62.33804 34897 ft 521 kts 68°
2026-04-25 16:58 43.11850 -62.24449 34883 ft 520 kts 68°
2026-04-25 16:59 43.14213 -62.15144 34885 ft 520 kts 69°
2026-04-25 16:59 43.16584 -62.05773 34876 ft 520 kts 69°
2026-04-25 17:00 43.18947 -61.96393 34875 ft 520 kts 69°
2026-04-25 17:00 43.21300 -61.87017 34867 ft 520 kts 69°
2026-04-25 17:01 43.23636 -61.77671 34862 ft 520 kts 69°
2026-04-25 17:01 43.25974 -61.68278 34855 ft 520 kts 69°
2026-04-25 17:02 43.28307 -61.58866 34851 ft 520 kts 69°
2026-04-25 17:02 43.30616 -61.49516 34843 ft 520 kts 69°
2026-04-25 17:03 43.32932 -61.40097 34840 ft 520 kts 70°
2026-04-25 17:03 43.35241 -61.30667 34828 ft 520 kts 70°
2026-04-25 17:03 43.36391 -61.25960 34380 ft 520 kts 70°
2026-04-25 17:04 43.37539 -61.21243 34837 ft 520 kts 70°
2026-04-25 17:04 43.39833 -61.11801 34820 ft 521 kts 70°
2026-04-25 17:05 43.42120 -61.02347 34810 ft 520 kts 70°
2026-04-25 17:05 43.45525 -60.88195 34801 ft 520 kts 70°
2026-04-25 17:06 43.47789 -60.78734 34797 ft 519 kts 70°
2026-04-25 17:06 43.50045 -60.69270 34800 ft 518 kts 70°
2026-04-25 17:07 43.52272 -60.59890 34797 ft 518 kts 70°
2026-04-25 17:07 43.54504 -60.50448 34778 ft 518 kts 70°
2026-04-25 17:08 43.56727 -60.41003 34792 ft 517 kts 71°
2026-04-25 17:08 43.58938 -60.31568 34777 ft 517 kts 71°
2026-04-25 17:09 43.61144 -60.22115 34768 ft 517 kts 71°
2026-04-25 17:09 43.63337 -60.12678 34768 ft 516 kts 71°
2026-04-25 17:10 43.65522 -60.03238 34765 ft 516 kts 71°
2026-04-25 17:10 43.67682 -59.93864 34759 ft 515 kts 71°
2026-04-25 17:11 43.69849 -59.84416 34753 ft 515 kts 71°
2026-04-25 17:11 43.72007 -59.74970 34742 ft 515 kts 71°
2026-04-25 17:12 43.74155 -59.65528 34742 ft 514 kts 71°
2026-04-25 17:12 43.76296 -59.56074 34733 ft 514 kts 71°
2026-04-25 17:13 43.77706 -59.49823 34734 ft 514 kts 71°
2026-04-25 17:13 43.80529 -59.37256 34722 ft 513 kts 71°
2026-04-25 17:14 43.82640 -59.27816 34724 ft 513 kts 71°
2026-04-25 17:14 43.84741 -59.18372 34668 ft 513 kts 71°
2026-04-25 17:15 43.85776 -59.13696 34512 ft 500 kts 70°
2026-04-25 17:15 43.86783 -59.09132 34584 ft 490 kts 70°
2026-04-25 17:15 43.88767 -59.00143 34686 ft 492 kts 70°
2026-04-25 17:16 43.90776 -58.91020 34708 ft 497 kts 70°
2026-04-25 17:16 43.92795 -58.81803 34710 ft 501 kts 70°
2026-04-25 17:17 43.94815 -58.72524 34703 ft 503 kts 70°
2026-04-25 17:17 43.96830 -58.63224 34688 ft 503 kts 70°
2026-04-25 17:18 43.98837 -58.53924 34684 ft 500 kts 70°
2026-04-25 17:18 44.00823 -58.44680 34680 ft 498 kts 70°
2026-04-25 17:19 44.02786 -58.35502 34678 ft 497 kts 70°
2026-04-25 17:19 44.04745 -58.26308 34671 ft 496 kts 70°
2026-04-25 17:20 44.06698 -58.17102 34672 ft 496 kts 71°
2026-04-25 17:20 44.08644 -58.07885 34663 ft 496 kts 71°
2026-04-25 17:21 44.10570 -57.98728 34658 ft 497 kts 71°
2026-04-25 17:21 44.12507 -57.89472 34658 ft 497 kts 71°
2026-04-25 17:22 44.13783 -57.83352 34651 ft 497 kts 71°
2026-04-25 17:22 44.16355 -57.70955 34635 ft 498 kts 71°
2026-04-25 17:23 44.18261 -57.61723 34634 ft 498 kts 71°
2026-04-25 17:23 44.20168 -57.52443 34629 ft 497 kts 71°
2026-04-25 17:24 44.22068 -57.43152 34627 ft 497 kts 71°
2026-04-25 17:24 44.23946 -57.33930 34617 ft 497 kts 71°
2026-04-25 17:25 44.25826 -57.24652 34612 ft 497 kts 71°
2026-04-25 17:25 44.27704 -57.15347 34615 ft 498 kts 71°
2026-04-25 17:26 44.29259 -57.07602 34610 ft 498 kts 71°
2026-04-25 17:26 44.31124 -56.98281 34601 ft 499 kts 71°
2026-04-25 17:27 44.32987 -56.88922 34590 ft 500 kts 71°
2026-04-25 17:27 44.34530 -56.81135 34594 ft 500 kts 71°
2026-04-25 17:28 44.36691 -56.70182 34589 ft 499 kts 71°
2026-04-25 17:28 44.38526 -56.60830 34586 ft 499 kts 72°
2026-04-25 17:29 44.40347 -56.51508 34575 ft 500 kts 72°
2026-04-25 17:29 44.42169 -56.42134 34574 ft 500 kts 72°
2026-04-25 17:30 44.43989 -56.32728 34563 ft 500 kts 72°
2026-04-25 17:30 44.45792 -56.23359 34563 ft 500 kts 72°
2026-04-25 17:31 44.47607 -56.13889 34555 ft 500 kts 72°
2026-04-25 17:31 44.49264 -56.04480 34546 ft 502 kts 77°
2026-04-25 17:32 44.50349 -55.94776 34551 ft 503 kts 78°
2026-04-25 17:32 44.51364 -55.85076 34544 ft 504 kts 78°
2026-04-25 17:33 44.52400 -55.75333 34542 ft 504 kts 78°
2026-04-25 17:33 44.53444 -55.65663 34534 ft 505 kts 78°
2026-04-25 17:34 44.54494 -55.55919 34532 ft 505 kts 78°
2026-04-25 17:34 44.55534 -55.46173 34519 ft 506 kts 78°
2026-04-25 17:35 44.56566 -55.36410 34518 ft 506 kts 78°
2026-04-25 17:35 44.57585 -55.26684 34522 ft 506 kts 79°
2026-04-25 17:36 44.58601 -55.16903 34504 ft 507 kts 78°
2026-04-25 17:36 44.59610 -55.07103 34499 ft 507 kts 79°
2026-04-25 17:37 44.60612 -54.97309 34505 ft 507 kts 79°
2026-04-25 17:37 44.61604 -54.87511 34489 ft 507 kts 79°
2026-04-25 17:38 44.62423 -54.79346 34475 ft 507 kts 79°
2026-04-25 17:38 44.63558 -54.67938 34475 ft 507 kts 79°
2026-04-25 17:39 44.64525 -54.58139 34475 ft 508 kts 79°
2026-04-25 17:39 44.65487 -54.48303 34464 ft 508 kts 79°
2026-04-25 17:40 44.66442 -54.38438 34464 ft 509 kts 79°
2026-04-25 17:40 44.67386 -54.28580 34459 ft 509 kts 79°
2026-04-25 17:41 44.68324 -54.18696 34454 ft 510 kts 80°
2026-04-25 17:41 44.69249 -54.08880 34455 ft 511 kts 80°
2026-04-25 17:42 44.70174 -53.98975 34449 ft 511 kts 80°
2026-04-25 17:42 44.71088 -53.89070 34438 ft 512 kts 80°
2026-04-25 17:43 44.71997 -53.79126 34431 ft 513 kts 80°
2026-04-25 17:43 44.72899 -53.69158 34418 ft 513 kts 80°
2026-04-25 17:44 44.73784 -53.59282 34417 ft 512 kts 80°
2026-04-25 17:44 44.74665 -53.49353 34418 ft 511 kts 80°
2026-04-25 17:45 44.75250 -53.42707 34583 ft 511 kts 81°
2026-04-25 17:45 44.75972 -53.34450 34924 ft 512 kts 81°
2026-04-25 17:45 44.76403 -53.29478 35117 ft 512 kts 81°
2026-04-25 17:46 44.76833 -53.24496 35298 ft 513 kts 81°
2026-04-25 17:46 44.77262 -53.19500 35338 ft 517 kts 81°
2026-04-25 17:46 44.78121 -53.09419 35381 ft 517 kts 81°
2026-04-25 17:47 44.78967 -52.99375 35390 ft 517 kts 81°
2026-04-25 17:47 44.79806 -52.89315 35386 ft 518 kts 81°
2026-04-25 17:48 44.81045 -52.74247 35387 ft 519 kts 82°
2026-04-25 17:49 44.81865 -52.64147 35378 ft 519 kts 82°
2026-04-25 17:49 44.82677 -52.54010 35368 ft 518 kts 82°
2026-04-25 17:50 44.83476 -52.43950 35360 ft 514 kts 82°
2026-04-25 17:50 44.84259 -52.33946 35361 ft 513 kts 82°
2026-04-25 17:51 44.85030 -52.24011 35358 ft 514 kts 82°
2026-04-25 17:51 44.85799 -52.13981 35345 ft 514 kts 82°
2026-04-25 17:52 44.86558 -52.03957 35346 ft 513 kts 82°
2026-04-25 17:52 44.87307 -51.93957 35344 ft 513 kts 82°
2026-04-25 17:53 44.88045 -51.83985 35331 ft 509 kts 83°
2026-04-25 17:53 44.88772 -51.74030 35343 ft 513 kts 83°
2026-04-25 17:54 44.89488 -51.64031 35339 ft 517 kts 83°
2026-04-25 17:54 44.90206 -51.53891 35331 ft 520 kts 83°
2026-04-25 17:55 44.90919 -51.43713 35325 ft 521 kts 83°
2026-04-25 17:55 44.91619 -51.33581 35320 ft 522 kts 83°
2026-04-25 17:56 44.92312 -51.23424 35307 ft 518 kts 83°
2026-04-25 17:56 44.92992 -51.13310 35314 ft 517 kts 84°
2026-04-25 17:57 44.93663 -51.03214 35310 ft 517 kts 84°
2026-04-25 17:57 44.94325 -50.93111 35316 ft 518 kts 84°
2026-04-25 17:58 44.94980 -50.82975 35307 ft 519 kts 84°
2026-04-25 17:58 44.95629 -50.72792 35309 ft 522 kts 84°
2026-04-25 17:59 44.96271 -50.62569 35306 ft 524 kts 84°
2026-04-25 17:59 44.96903 -50.52362 35307 ft 525 kts 85°
2026-04-25 18:00 44.97531 -50.42064 35302 ft 526 kts 85°
2026-04-25 18:00 44.98152 -50.31736 35294 ft 527 kts 85°
2026-04-25 18:01 44.98762 -50.21417 35299 ft 526 kts 85°
2026-04-25 18:01 44.99362 -50.11155 35293 ft 527 kts 85°
2026-04-25 18:02 45.00188 -50.00879 35299 ft 526 kts 79°
2026-04-25 18:02 45.02144 -49.90916 35297 ft 525 kts 70°
2026-04-25 18:03 45.04629 -49.81214 35290 ft 524 kts 70°
2026-04-25 18:03 45.07116 -49.71509 35278 ft 524 kts 70°
2026-04-25 18:04 45.09536 -49.61865 35285 ft 518 kts 70°
2026-04-25 18:04 45.11925 -49.52208 35296 ft 523 kts 71°
2026-04-25 18:05 45.14316 -49.42484 35273 ft 520 kts 71°
2026-04-25 18:05 45.16697 -49.32769 35289 ft 524 kts 71°
2026-04-25 18:06 45.19086 -49.22992 35283 ft 526 kts 71°
2026-04-25 18:06 45.21472 -49.13181 35273 ft 524 kts 71°
2026-04-25 18:07 45.23831 -49.03445 35285 ft 522 kts 71°
2026-04-25 18:07 45.26200 -48.93617 35291 ft 529 kts 71°
2026-04-25 18:08 45.28544 -48.83851 35269 ft 521 kts 72°
2026-04-25 18:08 45.30884 -48.74060 35298 ft 526 kts 72°
2026-04-25 18:09 45.35529 -48.54494 35292 ft 527 kts 72°
2026-04-25 18:10 45.37857 -48.44628 35291 ft 524 kts 72°
2026-04-25 18:10 45.40177 -48.34746 35302 ft 529 kts 72°
2026-04-25 18:11 45.42497 -48.24822 35295 ft 525 kts 72°
2026-04-25 18:11 45.44803 -48.14912 35304 ft 528 kts 73°
2026-04-25 18:12 45.47086 -48.05058 35298 ft 526 kts 73°
2026-04-25 18:12 45.49384 -47.95082 35302 ft 530 kts 73°
2026-04-25 18:13 45.51673 -47.85115 35310 ft 528 kts 73°
2026-04-25 18:13 45.53960 -47.75107 35314 ft 528 kts 73°
2026-04-25 18:14 45.57346 -47.60202 35320 ft 528 kts 74°
2026-04-25 18:14 45.59609 -47.50182 35326 ft 528 kts 74°
2026-04-25 18:15 45.61852 -47.40200 35337 ft 529 kts 74°
2026-04-25 18:15 45.64085 -47.30217 35332 ft 527 kts 74°
2026-04-25 18:16 45.66319 -47.20186 35348 ft 531 kts 74°
2026-04-25 18:17 45.69298 -47.06734 35350 ft 532 kts 75°
2026-04-25 18:17 45.71514 -46.96673 35350 ft 529 kts 75°
2026-04-25 18:18 45.73721 -46.86605 35360 ft 529 kts 75°
2026-04-25 18:18 45.75922 -46.76509 35374 ft 531 kts 75°
2026-04-25 18:19 45.78100 -46.66477 35369 ft 529 kts 75°
2026-04-25 18:19 45.80282 -46.56376 35387 ft 533 kts 75°
2026-04-25 18:20 45.82477 -46.46162 35398 ft 538 kts 75°
2026-04-25 18:20 45.84677 -46.35875 35394 ft 541 kts 75°
2026-04-25 18:21 45.86881 -46.25520 35401 ft 542 kts 75°
2026-04-25 18:21 45.89064 -46.15220 35407 ft 541 kts 76°
2026-04-25 18:22 45.91241 -46.04889 35408 ft 539 kts 76°
2026-04-25 18:22 45.93394 -45.94618 35416 ft 538 kts 76°
2026-04-25 18:23 45.95540 -45.84331 35420 ft 536 kts 76°
2026-04-25 18:23 45.97674 -45.74045 35430 ft 536 kts 76°
2026-04-25 18:24 45.99793 -45.63783 35435 ft 536 kts 76°
2026-04-25 18:24 46.01898 -45.53533 35443 ft 536 kts 77°
2026-04-25 18:25 46.04004 -45.43227 35450 ft 537 kts 77°
2026-04-25 18:25 46.06103 -45.32901 35452 ft 538 kts 77°
2026-04-25 18:26 46.08197 -45.22547 35459 ft 538 kts 77°
2026-04-25 18:26 46.10286 -45.12166 35463 ft 539 kts 77°
2026-04-25 18:27 46.12350 -45.01851 35467 ft 539 kts 77°
2026-04-25 18:27 46.14418 -44.91463 35471 ft 539 kts 77°
2026-04-25 18:28 46.16480 -44.81053 35479 ft 539 kts 77°
2026-04-25 18:28 46.18535 -44.70621 35480 ft 539 kts 78°
2026-04-25 18:29 46.21592 -44.54996 35493 ft 539 kts 78°
2026-04-25 18:30 46.25635 -44.34136 35498 ft 539 kts 78°
2026-04-25 18:30 46.27628 -44.23769 35497 ft 539 kts 78°
2026-04-25 18:31 46.29625 -44.13326 35505 ft 538 kts 78°
2026-04-25 18:31 46.31612 -44.02876 35512 ft 538 kts 78°
2026-04-25 18:32 46.33587 -43.92429 35507 ft 538 kts 79°
2026-04-25 18:32 46.35557 -43.81952 35513 ft 538 kts 79°
2026-04-25 18:33 46.37502 -43.71550 35512 ft 538 kts 79°
2026-04-25 18:33 46.39451 -43.61072 35518 ft 538 kts 79°
2026-04-25 18:34 46.41389 -43.50592 35521 ft 539 kts 79°
2026-04-25 18:34 46.43324 -43.40069 35522 ft 539 kts 79°
2026-04-25 18:35 46.45244 -43.29565 35522 ft 539 kts 80°
2026-04-25 18:35 46.47156 -43.19050 35523 ft 539 kts 80°
2026-04-25 18:36 46.49058 -43.08522 35535 ft 539 kts 80°
2026-04-25 18:36 46.50942 -42.98039 35539 ft 539 kts 80°
2026-04-25 18:37 46.52828 -42.87481 35535 ft 540 kts 80°
2026-04-25 18:37 46.54705 -42.76917 35528 ft 540 kts 81°
2026-04-25 18:38 46.56571 -42.66346 35539 ft 540 kts 81°
2026-04-25 18:38 46.58420 -42.55815 35538 ft 540 kts 81°
2026-04-25 18:39 46.60265 -42.45237 35538 ft 540 kts 81°
2026-04-25 18:39 46.62104 -42.34637 35540 ft 540 kts 81°
2026-04-25 18:40 46.63930 -42.24047 35547 ft 540 kts 81°
2026-04-25 18:40 46.65747 -42.13444 35548 ft 540 kts 81°
2026-04-25 18:41 46.67556 -42.02820 35548 ft 540 kts 81°
2026-04-25 18:41 46.69346 -41.92250 35549 ft 540 kts 82°
2026-04-25 18:42 46.70543 -41.85140 35547 ft 540 kts 82°
2026-04-25 18:42 46.72914 -41.70977 35546 ft 540 kts 82°
2026-04-25 18:43 46.74673 -41.60394 35549 ft 540 kts 82°
2026-04-25 18:43 46.76432 -41.49739 35557 ft 540 kts 82°
2026-04-25 18:44 46.78184 -41.39064 35545 ft 541 kts 82°
2026-04-25 18:44 46.79918 -41.28430 35551 ft 540 kts 82°
2026-04-25 18:45 46.81652 -41.17736 35564 ft 540 kts 82°
2026-04-25 18:45 46.83371 -41.07055 35550 ft 541 kts 82°
2026-04-25 18:46 46.85083 -40.96355 35553 ft 540 kts 83°
2026-04-25 18:46 46.86782 -40.85667 35558 ft 540 kts 83°
2026-04-25 18:47 46.88470 -40.74979 35564 ft 539 kts 83°
2026-04-25 18:47 46.90149 -40.64276 35563 ft 539 kts 83°
2026-04-25 18:48 46.91814 -40.53589 35564 ft 539 kts 83°
2026-04-25 18:48 46.93461 -40.42950 35573 ft 540 kts 83°
2026-04-25 18:49 46.95113 -40.32208 35572 ft 540 kts 83°
2026-04-25 18:49 46.96755 -40.21462 35584 ft 540 kts 83°
2026-04-25 18:50 46.98376 -40.10783 35588 ft 541 kts 83°
2026-04-25 18:50 46.99929 -40.00007 35597 ft 538 kts 87°
2026-04-25 18:51 47.00443 -39.92753 35596 ft 532 kts 93°
2026-04-25 18:51 47.00976 -39.78348 35594 ft 532 kts 94°
2026-04-25 18:52 47.01370 -39.67510 35600 ft 533 kts 93°
2026-04-25 18:52 47.01792 -39.56711 35603 ft 534 kts 93°
2026-04-25 18:53 47.02225 -39.45833 35607 ft 534 kts 93°
2026-04-25 18:53 47.02648 -39.34952 35598 ft 535 kts 93°
2026-04-25 18:54 47.03256 -39.18660 35605 ft 535 kts 93°
2026-04-25 18:55 47.03649 -39.07736 35610 ft 536 kts 93°
2026-04-25 18:55 47.04031 -38.96819 35613 ft 537 kts 94°
2026-04-25 18:56 47.04405 -38.85869 35620 ft 537 kts 94°
2026-04-25 18:56 47.04768 -38.74927 35614 ft 537 kts 94°
2026-04-25 18:57 47.05119 -38.64042 35621 ft 537 kts 94°
2026-04-25 18:57 47.05462 -38.53072 35617 ft 537 kts 94°
2026-04-25 18:58 47.05794 -38.42120 35620 ft 537 kts 94°
2026-04-25 18:58 47.06268 -38.25806 35633 ft 537 kts 94°
2026-04-25 18:59 47.06869 -38.03907 35629 ft 537 kts 94°
2026-04-25 19:00 47.07292 -37.87492 35631 ft 537 kts 94°
2026-04-25 19:01 47.07692 -37.71057 35637 ft 536 kts 94°
2026-04-25 19:01 47.07944 -37.60189 35644 ft 536 kts 94°
2026-04-25 19:02 47.08303 -37.43799 35642 ft 535 kts 94°
2026-04-25 19:03 47.08567 -37.31053 35643 ft 535 kts 94°
2026-04-25 19:03 47.08815 -37.18366 35643 ft 534 kts 94°
2026-04-25 19:04 47.09114 -37.02004 35660 ft 534 kts 94°
2026-04-25 19:05 47.09476 -36.80242 35668 ft 534 kts 94°
2026-04-25 19:06 47.09643 -36.69340 35670 ft 534 kts 94°
2026-04-25 19:06 47.09872 -36.52985 35682 ft 533 kts 94°
2026-04-25 19:07 47.10078 -36.36679 35696 ft 532 kts 94°
2026-04-25 19:08 47.10260 -36.20392 35706 ft 531 kts 94°
2026-04-25 19:09 47.10451 -36.00569 35714 ft 529 kts 94°
2026-04-25 19:10 47.10594 -35.82610 35731 ft 528 kts 94°
2026-04-25 19:10 47.10666 -35.71826 35738 ft 528 kts 94°
2026-04-25 19:11 47.10728 -35.61102 35740 ft 528 kts 94°
2026-04-25 19:11 47.10780 -35.50310 35754 ft 528 kts 94°
2026-04-25 19:12 47.10822 -35.39515 35749 ft 529 kts 94°
2026-04-25 19:12 47.10854 -35.28691 35762 ft 529 kts 94°
2026-04-25 19:13 47.10876 -35.17882 35763 ft 529 kts 94°
2026-04-25 19:13 47.10888 -35.07133 35771 ft 530 kts 94°
2026-04-25 19:14 47.10890 -34.96321 35780 ft 530 kts 94°
2026-04-25 19:14 47.10881 -34.85470 35790 ft 530 kts 94°
2026-04-25 19:15 47.10862 -34.74648 35794 ft 531 kts 94°
2026-04-25 19:15 47.10833 -34.63808 35820 ft 531 kts 94°
2026-04-25 19:16 47.10794 -34.53016 35812 ft 531 kts 94°
2026-04-25 19:16 47.10745 -34.42161 35821 ft 531 kts 94°
2026-04-25 19:17 47.10686 -34.31312 35819 ft 531 kts 94°
2026-04-25 19:17 47.10616 -34.20458 35834 ft 531 kts 94°
2026-04-25 19:18 47.10535 -34.09616 35837 ft 531 kts 94°
2026-04-25 19:18 47.10445 -33.98841 35846 ft 531 kts 94°
2026-04-25 19:19 47.10345 -33.87984 35840 ft 532 kts 94°
2026-04-25 19:19 47.10234 -33.77129 35862 ft 531 kts 94°
2026-04-25 19:20 47.10112 -33.66277 35871 ft 532 kts 94°
2026-04-25 19:20 47.09981 -33.55415 35865 ft 531 kts 94°
2026-04-25 19:21 47.09840 -33.44564 35877 ft 531 kts 94°
2026-04-25 19:21 47.09609 -33.28340 35882 ft 531 kts 94°
2026-04-25 19:22 47.09441 -33.17493 35890 ft 531 kts 95°
2026-04-25 19:23 47.09173 -33.01325 35899 ft 530 kts 95°
2026-04-25 19:23 47.08881 -32.85070 35906 ft 530 kts 95°
2026-04-25 19:24 47.08673 -32.74254 35921 ft 529 kts 95°
2026-04-25 19:25 47.08229 -32.52675 35927 ft 529 kts 95°
2026-04-25 19:25 47.07992 -32.41898 35932 ft 528 kts 95°
2026-04-25 19:26 47.07746 -32.31204 35933 ft 528 kts 95°
2026-04-25 19:26 47.07489 -32.20432 35948 ft 527 kts 95°
2026-04-25 19:27 47.07268 -32.11491 35950 ft 527 kts 95°
2026-04-25 19:27 47.06945 -31.98927 35957 ft 527 kts 95°
2026-04-25 19:28 47.06660 -31.88243 35963 ft 527 kts 95°
2026-04-25 19:28 47.06363 -31.77505 35969 ft 526 kts 95°
2026-04-25 19:29 47.06056 -31.66771 35973 ft 526 kts 95°
2026-04-25 19:29 47.05740 -31.56052 35982 ft 526 kts 95°
2026-04-25 19:30 47.05413 -31.45306 35989 ft 526 kts 95°
2026-04-25 19:30 47.05079 -31.34662 35992 ft 525 kts 95°
2026-04-25 19:31 47.04734 -31.23962 35997 ft 525 kts 95°
2026-04-25 19:31 47.04378 -31.13261 36001 ft 525 kts 96°
2026-04-25 19:32 47.04012 -31.02558 36009 ft 525 kts 96°
2026-04-25 19:32 47.03764 -30.95473 36011 ft 525 kts 96°
2026-04-25 19:33 47.03254 -30.81245 36016 ft 524 kts 96°
2026-04-25 19:33 47.02859 -30.70564 36025 ft 524 kts 96°
2026-04-25 19:34 47.02454 -30.59884 36028 ft 524 kts 96°
2026-04-25 19:34 47.02042 -30.49287 36034 ft 524 kts 96°
2026-04-25 19:35 47.01619 -30.38637 36041 ft 524 kts 96°
2026-04-25 19:35 47.01186 -30.27990 36046 ft 524 kts 96°
2026-04-25 19:36 47.00742 -30.17328 36050 ft 524 kts 96°
2026-04-25 19:36 47.00289 -30.06642 36051 ft 524 kts 96°
2026-04-25 19:37 47.00074 -29.96031 36057 ft 526 kts 89°
2026-04-25 19:37 47.00535 -29.85314 36059 ft 527 kts 88°
2026-04-25 19:38 47.01049 -29.74588 36068 ft 527 kts 88°
2026-04-25 19:38 47.01520 -29.63866 36067 ft 527 kts 88°
2026-04-25 19:39 47.01953 -29.53129 36073 ft 527 kts 89°
2026-04-25 19:39 47.02368 -29.42397 36074 ft 528 kts 89°
2026-04-25 19:40 47.02774 -29.31660 36079 ft 527 kts 89°
2026-04-25 19:40 47.03171 -29.20973 36086 ft 527 kts 89°
2026-04-25 19:41 47.03560 -29.10237 36086 ft 527 kts 89°
2026-04-25 19:41 47.03814 -29.03099 36091 ft 527 kts 89°
2026-04-25 19:42 47.04310 -28.88737 36093 ft 527 kts 89°
2026-04-25 19:42 47.04669 -28.77990 36101 ft 527 kts 89°
2026-04-25 19:43 47.05015 -28.67322 36101 ft 527 kts 89°
2026-04-25 19:43 47.05354 -28.56574 36104 ft 527 kts 89°
2026-04-25 19:44 47.05683 -28.45836 36100 ft 527 kts 89°
2026-04-25 19:44 47.06002 -28.35099 36108 ft 527 kts 89°
2026-04-25 19:45 47.06310 -28.24348 36102 ft 527 kts 89°
2026-04-25 19:45 47.06609 -28.13619 36112 ft 527 kts 89°
2026-04-25 19:46 47.06897 -28.02876 36116 ft 527 kts 89°
2026-04-25 19:46 47.07174 -27.92201 36108 ft 527 kts 89°
2026-04-25 19:47 47.07443 -27.81445 36116 ft 528 kts 89°
2026-04-25 19:47 47.07701 -27.70704 36119 ft 528 kts 89°
2026-04-25 19:48 47.07950 -27.59918 36120 ft 528 kts 89°
2026-04-25 19:48 47.08189 -27.49151 36116 ft 528 kts 89°
2026-04-25 19:49 47.08343 -27.41953 36121 ft 528 kts 89°
2026-04-25 19:49 47.08636 -27.27612 36123 ft 527 kts 89°
2026-04-25 19:50 47.08911 -27.13288 36121 ft 527 kts 89°
2026-04-25 19:51 47.09106 -27.02532 36126 ft 527 kts 89°
2026-04-25 19:51 47.09290 -26.91782 36125 ft 526 kts 89°
2026-04-25 19:52 47.09465 -26.81031 36126 ft 526 kts 89°
2026-04-25 19:52 47.09628 -26.70376 36126 ft 526 kts 89°
2026-04-25 19:53 47.09782 -26.59628 36130 ft 526 kts 89°
2026-04-25 19:53 47.09926 -26.48893 36126 ft 525 kts 89°
2026-04-25 19:54 47.10061 -26.38156 36126 ft 525 kts 89°
2026-04-25 19:54 47.10183 -26.27521 36129 ft 525 kts 89°
2026-04-25 19:55 47.10297 -26.16797 36127 ft 524 kts 89°
2026-04-25 19:55 47.10401 -26.06077 36132 ft 524 kts 89°
2026-04-25 19:56 47.10495 -25.95365 36125 ft 523 kts 89°
2026-04-25 19:56 47.10579 -25.84753 36126 ft 523 kts 89°
2026-04-25 19:57 47.10652 -25.74082 36125 ft 522 kts 89°
2026-04-25 19:57 47.10716 -25.63432 36127 ft 522 kts 89°
2026-04-25 19:58 47.10770 -25.52769 36128 ft 521 kts 89°
2026-04-25 19:58 47.10814 -25.42127 36127 ft 521 kts 89°
2026-04-25 19:59 47.10848 -25.31558 36126 ft 521 kts 89°
2026-04-25 19:59 47.10872 -25.20916 36129 ft 521 kts 89°
2026-04-25 20:00 47.10887 -25.10271 36130 ft 522 kts 89°
2026-04-25 20:00 47.10891 -24.99608 36128 ft 522 kts 89°
2026-04-25 20:01 47.10879 -24.83618 36129 ft 522 kts 89°
2026-04-25 20:01 47.10859 -24.72933 36127 ft 523 kts 89°
2026-04-25 20:02 47.10829 -24.62313 36130 ft 523 kts 89°
2026-04-25 20:02 47.10789 -24.51609 36123 ft 524 kts 89°
2026-04-25 20:03 47.10739 -24.40898 36127 ft 524 kts 89°
2026-04-25 20:03 47.10679 -24.30273 36118 ft 524 kts 89°
2026-04-25 20:04 47.10609 -24.19551 36124 ft 524 kts 89°
2026-04-25 20:04 47.10530 -24.08892 36129 ft 524 kts 90°
2026-04-25 20:05 47.10440 -23.98198 36120 ft 524 kts 90°
2026-04-25 20:05 47.10340 -23.87484 36121 ft 524 kts 90°
2026-04-25 20:06 47.10231 -23.76828 36106 ft 523 kts 90°
2026-04-25 20:06 47.10111 -23.66150 36111 ft 523 kts 90°
2026-04-25 20:07 47.09982 -23.55469 36122 ft 523 kts 90°
2026-04-25 20:07 47.09842 -23.44797 36121 ft 522 kts 90°
2026-04-25 20:08 47.09693 -23.34130 36111 ft 522 kts 90°
2026-04-25 20:08 47.09534 -23.23469 36112 ft 522 kts 90°
2026-04-25 20:09 47.09365 -23.12792 36108 ft 522 kts 90°
2026-04-25 20:09 47.09188 -23.02194 36111 ft 522 kts 90°
2026-04-25 20:10 47.08999 -22.91506 36112 ft 523 kts 90°
2026-04-25 20:10 47.08800 -22.80835 36113 ft 523 kts 90°
2026-04-25 20:11 47.08592 -22.70222 36111 ft 523 kts 90°
2026-04-25 20:11 47.08374 -22.59555 36103 ft 523 kts 90°
2026-04-25 20:12 47.08146 -22.48893 36105 ft 523 kts 90°
2026-04-25 20:12 47.07987 -22.41750 36108 ft 523 kts 90°
2026-04-25 20:13 47.07659 -22.27537 36102 ft 524 kts 90°
2026-04-25 20:13 47.07401 -22.16896 36104 ft 523 kts 90°
2026-04-25 20:14 47.07133 -22.06216 36093 ft 523 kts 90°
2026-04-25 20:14 47.06856 -21.95605 36099 ft 523 kts 90°
2026-04-25 20:15 47.06569 -21.84948 36092 ft 523 kts 90°
2026-04-25 20:15 47.06272 -21.74305 36089 ft 522 kts 91°
2026-04-25 20:16 47.05964 -21.63631 36088 ft 522 kts 91°
2026-04-25 20:16 47.05649 -21.53042 36082 ft 523 kts 91°
2026-04-25 20:17 47.05322 -21.42406 36088 ft 523 kts 91°
2026-04-25 20:17 47.04985 -21.31745 36086 ft 523 kts 91°
2026-04-25 20:18 47.04637 -21.21057 36087 ft 523 kts 91°
2026-04-25 20:18 47.04280 -21.10390 36083 ft 523 kts 91°
2026-04-25 20:19 47.03913 -20.99744 36083 ft 523 kts 91°
2026-04-25 20:19 47.03536 -20.89080 36082 ft 523 kts 92°
2026-04-25 20:20 47.03150 -20.78430 36079 ft 523 kts 92°
2026-04-25 20:20 47.02755 -20.67825 36081 ft 523 kts 92°
2026-04-25 20:21 47.02349 -20.57179 36076 ft 523 kts 92°
2026-04-25 20:21 47.01934 -20.46551 36078 ft 522 kts 92°
2026-04-25 20:22 47.01651 -20.39450 36080 ft 522 kts 92°
2026-04-25 20:22 47.01074 -20.25287 36076 ft 522 kts 93°
2026-04-25 20:23 47.00632 -20.14736 36076 ft 521 kts 93°
2026-04-25 20:23 47.00180 -20.04115 36075 ft 521 kts 93°
2026-04-25 20:24 47.00044 -19.93515 36080 ft 520 kts 88°
2026-04-25 20:24 47.00293 -19.82915 36078 ft 520 kts 88°
2026-04-25 20:25 47.00552 -19.72375 36079 ft 520 kts 88°
2026-04-25 20:25 47.00771 -19.61773 36078 ft 520 kts 88°
2026-04-25 20:26 47.00962 -19.51157 36081 ft 520 kts 89°
2026-04-25 20:26 47.01138 -19.40621 36080 ft 520 kts 89°
2026-04-25 20:27 47.01308 -19.30032 36083 ft 519 kts 89°
2026-04-25 20:27 47.01469 -19.19438 36083 ft 519 kts 89°
2026-04-25 20:28 47.01620 -19.08909 36085 ft 519 kts 89°
2026-04-25 20:28 47.01761 -18.98328 36090 ft 519 kts 90°
2026-04-25 20:29 47.01893 -18.87739 36091 ft 519 kts 90°
2026-04-25 20:29 47.02015 -18.77160 36090 ft 518 kts 90°
2026-04-25 20:30 47.02127 -18.66588 36097 ft 518 kts 90°
2026-04-25 20:30 47.02230 -18.56020 36097 ft 518 kts 90°
2026-04-25 20:31 47.02322 -18.45513 36101 ft 519 kts 90°
2026-04-25 20:31 47.02405 -18.34924 36106 ft 519 kts 91°
2026-04-25 20:32 47.02478 -18.24342 36106 ft 519 kts 91°
2026-04-25 20:32 47.02542 -18.13779 36112 ft 519 kts 91°
2026-04-25 20:33 47.02596 -18.03252 36112 ft 519 kts 91°
2026-04-25 20:33 47.02626 -17.96183 36115 ft 519 kts 91°
2026-04-25 20:34 47.02674 -17.82068 36117 ft 519 kts 91°
2026-04-25 20:34 47.02699 -17.71561 36117 ft 518 kts 92°
2026-04-25 20:35 47.02714 -17.60988 36124 ft 518 kts 92°
2026-04-25 20:35 47.02719 -17.50410 36137 ft 518 kts 92°
2026-04-25 20:36 47.02715 -17.39846 36129 ft 518 kts 92°
2026-04-25 20:36 47.02701 -17.29335 36138 ft 518 kts 92°
2026-04-25 20:37 47.02681 -17.20495 36137 ft 517 kts 92°
2026-04-25 20:37 47.02650 -17.09958 36149 ft 517 kts 92°
2026-04-25 20:38 47.02608 -16.99459 36153 ft 517 kts 93°
2026-04-25 20:38 47.02557 -16.88904 36160 ft 517 kts 93°
2026-04-25 20:39 47.02496 -16.78333 36161 ft 517 kts 93°
2026-04-25 20:39 47.02438 -16.69570 36165 ft 517 kts 93°
2026-04-25 20:40 47.02345 -16.57235 36170 ft 517 kts 94°
2026-04-25 20:40 47.02255 -16.46730 36177 ft 517 kts 94°
2026-04-25 20:41 47.02155 -16.36179 36177 ft 517 kts 94°
2026-04-25 20:41 47.02046 -16.25631 36179 ft 517 kts 94°
2026-04-25 20:42 47.01927 -16.15074 36186 ft 517 kts 94°
2026-04-25 20:42 47.01799 -16.04612 36185 ft 517 kts 95°
2026-04-25 20:43 47.01661 -15.94054 36191 ft 517 kts 95°
2026-04-25 20:43 47.01513 -15.83500 36194 ft 517 kts 95°
2026-04-25 20:44 47.01356 -15.72957 36199 ft 517 kts 95°
2026-04-25 20:44 47.01189 -15.62476 36201 ft 517 kts 95°
2026-04-25 20:45 47.01012 -15.51903 36202 ft 517 kts 95°
2026-04-25 20:45 47.00825 -15.41368 36205 ft 517 kts 95°
2026-04-25 20:46 47.00629 -15.30835 36208 ft 517 kts 96°
2026-04-25 20:46 47.00424 -15.20304 36209 ft 517 kts 96°
2026-04-25 20:47 47.00210 -15.09822 36214 ft 517 kts 96°
2026-04-25 20:47 47.00008 -14.99271 36216 ft 518 kts 94°
2026-04-25 20:48 47.00218 -14.88688 36216 ft 519 kts 92°
2026-04-25 20:48 47.00534 -14.78181 36218 ft 520 kts 92°
2026-04-25 20:49 47.00833 -14.67586 36220 ft 519 kts 92°
2026-04-25 20:49 47.01095 -14.57004 36225 ft 519 kts 92°
2026-04-25 20:50 47.01336 -14.46440 36224 ft 519 kts 92°
2026-04-25 20:50 47.01566 -14.35877 36226 ft 519 kts 92°
2026-04-25 20:51 47.01788 -14.25371 36230 ft 518 kts 92°
2026-04-25 20:51 47.02002 -14.14802 36231 ft 518 kts 92°
2026-04-25 20:52 47.02173 -14.06001 36231 ft 518 kts 92°
2026-04-25 20:52 47.02401 -13.93661 36233 ft 517 kts 92°
2026-04-25 20:53 47.02586 -13.83121 36235 ft 517 kts 92°
2026-04-25 20:53 47.02759 -13.72654 36238 ft 516 kts 92°
2026-04-25 20:54 47.02924 -13.62137 36240 ft 516 kts 92°
2026-04-25 20:54 47.03079 -13.51620 36236 ft 516 kts 92°
2026-04-25 20:55 47.03224 -13.41109 36237 ft 516 kts 92°
2026-04-25 20:55 47.03360 -13.30595 36241 ft 516 kts 92°
2026-04-25 20:56 47.03486 -13.20078 36247 ft 516 kts 92°
2026-04-25 20:56 47.03603 -13.09563 36249 ft 515 kts 92°
2026-04-25 20:57 47.03709 -12.99111 36247 ft 515 kts 92°
2026-04-25 20:57 47.03806 -12.88611 36247 ft 515 kts 92°
2026-04-25 20:58 47.03894 -12.78104 36244 ft 515 kts 92°
2026-04-25 20:58 47.03972 -12.67596 36247 ft 515 kts 92°
2026-04-25 20:59 47.04040 -12.57090 36245 ft 515 kts 92°
2026-04-25 20:59 47.04099 -12.46646 36245 ft 515 kts 92°
2026-04-25 21:00 47.04133 -12.39623 36247 ft 515 kts 92°
2026-04-25 21:01 47.04204 -12.20385 36252 ft 515 kts 93°
2026-04-25 21:01 47.04229 -12.09886 36249 ft 515 kts 93°
2026-04-25 21:02 47.04245 -11.99397 36255 ft 514 kts 93°
2026-04-25 21:02 47.04251 -11.88968 36250 ft 514 kts 93°
2026-04-25 21:03 47.04247 -11.78468 36256 ft 514 kts 93°
2026-04-25 21:03 47.04234 -11.67983 36257 ft 514 kts 93°
2026-04-25 21:04 47.04212 -11.57498 36253 ft 514 kts 93°
2026-04-25 21:04 47.04179 -11.47024 36258 ft 513 kts 93°
2026-04-25 21:05 47.04138 -11.36615 36258 ft 513 kts 93°
2026-04-25 21:05 47.04087 -11.26143 36257 ft 513 kts 93°
2026-04-25 21:06 47.04026 -11.15664 36256 ft 514 kts 93°
2026-04-25 21:06 47.03956 -11.05169 36252 ft 514 kts 93°
2026-04-25 21:07 47.03876 -10.94744 36260 ft 514 kts 93°
2026-04-25 21:07 47.03787 -10.84229 36258 ft 515 kts 94°
2026-04-25 21:08 47.03688 -10.73726 36255 ft 515 kts 94°
2026-04-25 21:08 47.03579 -10.63225 36254 ft 515 kts 94°
2026-04-25 21:09 47.03397 -10.47459 36256 ft 515 kts 94°
2026-04-25 21:09 47.03265 -10.37017 36260 ft 516 kts 94°
2026-04-25 21:10 47.03123 -10.26507 36258 ft 516 kts 94°
2026-04-25 21:10 47.02971 -10.15987 36251 ft 516 kts 94°
2026-04-25 21:11 47.02809 -10.05460 36263 ft 516 kts 94°
2026-04-25 21:11 47.02637 -9.94952 36266 ft 516 kts 94°
2026-04-25 21:12 47.02456 -9.84425 36253 ft 516 kts 94°
2026-04-25 21:12 47.02298 -9.75679 36259 ft 516 kts 94°
2026-04-25 21:13 47.02066 -9.63445 36262 ft 516 kts 94°
2026-04-25 21:13 47.01855 -9.52921 36253 ft 517 kts 94°
2026-04-25 21:14 47.01635 -9.42368 36256 ft 517 kts 94°
2026-04-25 21:14 47.01407 -9.31918 36254 ft 516 kts 94°
2026-04-25 21:15 47.01168 -9.21385 36253 ft 516 kts 94°
2026-04-25 21:15 47.00919 -9.10871 36255 ft 516 kts 94°
2026-04-25 21:16 47.00661 -9.00362 36255 ft 516 kts 94°
2026-04-25 21:16 47.00394 -8.89861 36251 ft 515 kts 94°
2026-04-25 21:17 47.00120 -8.79423 36251 ft 515 kts 94°
2026-04-25 21:17 46.99912 -8.68917 36247 ft 516 kts 92°
2026-04-25 21:18 46.99975 -8.58395 36249 ft 516 kts 91°
2026-04-25 21:18 47.00050 -8.47937 36178 ft 513 kts 91°
2026-04-25 21:19 47.00065 -8.42699 35898 ft 514 kts 91°
2026-04-25 21:19 47.00068 -8.37435 35491 ft 516 kts 92°
2026-04-25 21:19 47.00064 -8.32144 35252 ft 520 kts 92°
2026-04-25 21:19 47.00057 -8.26836 35256 ft 522 kts 92°
2026-04-25 21:20 47.00046 -8.19786 35239 ft 522 kts 92°
2026-04-25 21:20 47.00018 -8.05654 35238 ft 520 kts 92°
2026-04-25 21:21 46.99444 -7.95133 35233 ft 516 kts 103°
2026-04-25 21:21 46.97987 -7.84825 35239 ft 516 kts 104°
2026-04-25 21:22 46.96491 -7.74546 35238 ft 517 kts 104°
2026-04-25 21:22 46.95025 -7.64276 35241 ft 518 kts 103°
2026-04-25 21:23 46.93566 -7.53944 35238 ft 519 kts 103°
2026-04-25 21:23 46.92096 -7.43564 35241 ft 519 kts 103°
2026-04-25 21:24 46.90628 -7.33279 35238 ft 520 kts 103°
2026-04-25 21:24 46.89137 -7.22919 35239 ft 520 kts 103°
2026-04-25 21:25 46.87890 -7.14314 35237 ft 520 kts 103°
2026-04-25 21:25 46.86380 -7.03958 35237 ft 520 kts 103°
2026-04-25 21:26 46.84873 -6.93688 35235 ft 520 kts 103°
2026-04-25 21:26 46.83348 -6.83365 35244 ft 520 kts 103°
2026-04-25 21:27 46.81817 -6.73047 35239 ft 520 kts 102°
2026-04-25 21:27 46.80956 -6.62576 35243 ft 520 kts 94°
2026-04-25 21:28 46.80495 -6.52035 35236 ft 520 kts 94°
2026-04-25 21:28 46.80015 -6.41489 35232 ft 519 kts 94°
2026-04-25 21:29 46.79488 -6.30968 35238 ft 519 kts 94°
2026-04-25 21:29 46.78935 -6.20481 35234 ft 518 kts 94°
2026-04-25 21:30 46.78372 -6.10014 35232 ft 517 kts 94°
2026-04-25 21:30 46.77902 -6.01373 35228 ft 516 kts 94°
2026-04-25 21:31 46.77228 -5.89165 35232 ft 515 kts 94°
2026-04-25 21:31 46.76648 -5.78830 35226 ft 514 kts 94°
2026-04-25 21:32 46.76055 -5.68440 35225 ft 513 kts 94°
2026-04-25 21:32 46.75453 -5.58059 35224 ft 513 kts 94°
2026-04-25 21:33 46.74843 -5.47689 35221 ft 513 kts 94°
2026-04-25 21:33 46.74222 -5.37321 35222 ft 513 kts 94°
2026-04-25 21:34 46.73598 -5.27040 35219 ft 513 kts 94°
2026-04-25 21:34 46.72959 -5.16671 35219 ft 513 kts 94°
2026-04-25 21:35 46.72311 -5.06313 35212 ft 513 kts 94°
2026-04-25 21:35 46.71654 -4.95966 35212 ft 513 kts 94°
2026-04-25 21:36 46.70988 -4.85628 35212 ft 512 kts 94°
2026-04-25 21:36 46.70316 -4.75337 35212 ft 512 kts 94°
2026-04-25 21:37 46.69743 -4.66678 35215 ft 512 kts 94°
2026-04-25 21:37 46.68938 -4.54677 35213 ft 512 kts 94°
2026-04-25 21:38 46.68234 -4.44337 35200 ft 512 kts 94°
2026-04-25 21:38 46.67522 -4.34009 35200 ft 512 kts 94°
2026-04-25 21:39 46.66804 -4.23741 35207 ft 512 kts 94°
2026-04-25 21:39 46.66073 -4.13409 35201 ft 513 kts 95°
2026-04-25 21:40 46.65333 -4.03097 35202 ft 513 kts 95°
2026-04-25 21:40 46.64582 -3.92758 35202 ft 513 kts 95°
2026-04-25 21:41 46.63821 -3.82421 35199 ft 513 kts 95°
2026-04-25 21:41 46.63056 -3.72153 35200 ft 513 kts 94°
2026-04-25 21:42 46.62278 -3.61830 35192 ft 513 kts 94°
2026-04-25 21:42 46.61490 -3.51517 35194 ft 513 kts 94°
2026-04-25 21:43 46.60695 -3.41220 35190 ft 512 kts 94°
2026-04-25 21:43 46.59896 -3.30998 35191 ft 512 kts 94°
2026-04-25 21:44 46.59081 -3.20690 35187 ft 512 kts 94°
2026-04-25 21:45 46.57843 -3.05266 35188 ft 511 kts 94°
2026-04-25 21:45 46.57014 -2.95082 35186 ft 511 kts 94°
2026-04-25 21:46 46.56170 -2.84828 35186 ft 510 kts 94°
2026-04-25 21:46 46.55319 -2.74596 35187 ft 510 kts 94°
2026-04-25 21:47 46.54456 -2.64346 35186 ft 509 kts 94°
2026-04-25 21:47 46.53594 -2.54205 35186 ft 509 kts 94°
2026-04-25 21:48 46.52716 -2.44000 35186 ft 509 kts 95°
2026-04-25 21:48 46.51831 -2.33805 35186 ft 508 kts 95°
2026-04-25 21:49 46.50936 -2.23621 35185 ft 508 kts 95°
2026-04-25 21:49 46.50033 -2.13434 35186 ft 508 kts 95°
2026-04-25 21:50 46.49119 -2.03242 35187 ft 508 kts 95°
2026-04-25 21:50 46.48204 -1.93132 35186 ft 508 kts 95°
2026-04-25 21:51 46.47272 -1.82944 35185 ft 508 kts 95°
2026-04-25 21:51 46.46339 -1.72847 35189 ft 508 kts 95°
2026-04-25 21:52 46.45394 -1.62712 35189 ft 508 kts 95°
2026-04-25 21:52 46.44436 -1.52550 35194 ft 508 kts 96°
2026-04-25 21:53 46.43469 -1.42382 35191 ft 508 kts 96°
2026-04-25 21:53 46.42501 -1.32304 35178 ft 508 kts 96°
2026-04-25 21:54 46.41519 -1.22170 35182 ft 508 kts 96°
2026-04-25 21:54 46.40523 -1.12001 35177 ft 508 kts 96°
2026-04-25 21:55 46.39522 -1.01864 35185 ft 508 kts 96°
2026-04-25 21:55 46.38517 -0.91784 35179 ft 509 kts 97°
2026-04-25 21:56 46.37495 -0.81630 35176 ft 509 kts 97°
2026-04-25 21:56 46.36465 -0.71486 35176 ft 509 kts 97°
2026-04-25 21:57 46.35423 -0.61322 35174 ft 510 kts 97°
2026-04-25 21:57 46.34374 -0.51173 35170 ft 510 kts 97°
2026-04-25 21:58 46.33321 -0.41081 35173 ft 510 kts 97°
2026-04-25 21:58 46.32252 -0.30924 35172 ft 511 kts 97°
2026-04-25 21:59 46.31174 -0.20775 35172 ft 511 kts 97°
2026-04-25 21:59 46.30085 -0.10605 35172 ft 511 kts 98°
2026-04-25 22:00 46.28437 0.04619 35168 ft 511 kts 98°
2026-04-25 22:00 46.27324 0.14786 35164 ft 511 kts 98°
2026-04-25 22:01 46.26201 0.24962 35164 ft 512 kts 98°
2026-04-25 22:01 46.25262 0.33402 35163 ft 512 kts 98°
2026-04-25 22:02 46.23937 0.45222 35169 ft 513 kts 98°
2026-04-25 22:02 46.22785 0.55397 35165 ft 513 kts 98°
2026-04-25 22:03 46.21622 0.65593 35168 ft 514 kts 99°
2026-04-25 22:03 46.20451 0.75780 35163 ft 515 kts 99°
2026-04-25 22:04 46.19274 0.85927 35174 ft 515 kts 99°
2026-04-25 22:04 46.18080 0.96141 35171 ft 516 kts 99°
2026-04-25 22:05 46.16877 1.06352 35171 ft 516 kts 100°
2026-04-25 22:05 46.15663 1.16572 35175 ft 516 kts 100°
2026-04-25 22:06 46.14439 1.26788 35175 ft 517 kts 100°
2026-04-25 22:06 46.13213 1.36947 35175 ft 517 kts 101°
2026-04-25 22:07 46.12179 1.45457 35179 ft 517 kts 101°
2026-04-25 22:07 46.10725 1.57327 35171 ft 517 kts 101°
2026-04-25 22:08 46.09465 1.67534 35173 ft 517 kts 101°
2026-04-25 22:08 46.08196 1.77726 35170 ft 516 kts 101°
2026-04-25 22:09 46.06919 1.87911 35169 ft 516 kts 101°
2026-04-25 22:09 46.05634 1.98078 35168 ft 516 kts 101°
2026-04-25 22:10 46.04339 2.08255 35168 ft 516 kts 101°
2026-04-25 22:10 46.03042 2.18369 35169 ft 516 kts 102°
2026-04-25 22:11 46.01729 2.28537 35163 ft 516 kts 102°
2026-04-25 22:11 46.00406 2.38710 35169 ft 516 kts 102°
2026-04-25 22:12 45.99300 2.47148 35163 ft 516 kts 102°
2026-04-25 22:12 45.98189 2.55578 35169 ft 516 kts 102°
2026-04-25 22:13 45.96616 2.67435 35155 ft 516 kts 102°
2026-04-25 22:13 45.95262 2.77550 35157 ft 516 kts 102°
2026-04-25 22:14 45.93908 2.87600 35162 ft 515 kts 102°
2026-04-25 22:14 45.92536 2.97717 35157 ft 515 kts 102°
2026-04-25 22:15 45.91156 3.07816 35154 ft 515 kts 102°
2026-04-25 22:16 45.89071 3.22951 35157 ft 515 kts 102°
2026-04-25 22:16 45.87678 3.32971 35158 ft 515 kts 102°
2026-04-25 22:17 45.86268 3.43053 35158 ft 515 kts 102°
2026-04-25 22:17 45.84846 3.53142 35162 ft 516 kts 102°
2026-04-25 22:18 45.83417 3.63216 35158 ft 516 kts 102°
2026-04-25 22:18 45.81983 3.73268 35158 ft 516 kts 102°
2026-04-25 22:19 45.80533 3.83352 35160 ft 516 kts 102°
2026-04-25 22:19 45.79078 3.93411 35164 ft 516 kts 102°
2026-04-25 22:20 45.77610 4.03489 35160 ft 515 kts 102°
2026-04-25 22:20 45.76140 4.13521 35162 ft 514 kts 102°
2026-04-25 22:21 45.74661 4.23541 35157 ft 514 kts 102°
2026-04-25 22:21 45.73176 4.33541 35161 ft 513 kts 102°
2026-04-25 22:22 45.71682 4.43538 35154 ft 513 kts 102°
2026-04-25 22:22 45.70192 4.53448 35154 ft 512 kts 102°
2026-04-25 22:23 45.68691 4.63365 35128 ft 504 kts 102°
2026-04-25 22:23 45.67210 4.73095 35126 ft 499 kts 102°
2026-04-25 22:24 45.65729 4.82766 35130 ft 497 kts 102°
2026-04-25 22:24 45.64242 4.92411 35132 ft 497 kts 102°
2026-04-25 22:25 45.62745 5.02066 35132 ft 497 kts 102°
2026-04-25 22:25 45.61248 5.11666 35132 ft 497 kts 103°
2026-04-25 22:26 45.59735 5.21309 35130 ft 497 kts 103°
2026-04-25 22:26 45.58211 5.30963 35130 ft 497 kts 103°
2026-04-25 22:27 45.56690 5.40546 35128 ft 497 kts 103°
2026-04-25 22:27 45.55154 5.50164 35134 ft 497 kts 103°
2026-04-25 22:28 45.53610 5.59783 35128 ft 497 kts 103°
2026-04-25 22:28 45.52054 5.69417 35130 ft 497 kts 103°
2026-04-25 22:29 45.50504 5.78962 35125 ft 497 kts 103°
2026-04-25 22:29 45.49721 5.83763 34995 ft 497 kts 103°
2026-04-25 22:29 45.48938 5.88555 34711 ft 496 kts 103°
2026-04-25 22:30 45.47376 5.98029 34353 ft 490 kts 104°
2026-04-25 22:30 45.46543 6.02785 34344 ft 496 kts 104°
2026-04-25 22:30 45.45675 6.07569 34180 ft 499 kts 105°
2026-04-25 22:30 45.45099 6.10717 33866 ft 491 kts 105°
2026-04-25 22:31 45.43992 6.16774 33158 ft 461 kts 105°
2026-04-25 22:31 45.43202 6.21117 32624 ft 447 kts 105°
2026-04-25 22:31 45.42434 6.25352 32088 ft 439 kts 105°
2026-04-25 22:31 45.41664 6.29591 31626 ft 445 kts 105°
2026-04-25 22:32 45.40886 6.33870 31133 ft 446 kts 105°
2026-04-25 22:32 45.40108 6.38139 30653 ft 444 kts 105°
2026-04-25 22:32 45.39333 6.42380 30164 ft 441 kts 105°
2026-04-25 22:32 45.38423 6.46514 29603 ft 437 kts 113°
2026-04-25 22:33 45.37115 6.50365 29327 ft 426 kts 121°
2026-04-25 22:33 45.35543 6.53907 29374 ft 425 kts 126°
2026-04-25 22:33 45.33673 6.57257 29367 ft 441 kts 131°
2026-04-25 22:33 45.31643 6.60621 29370 ft 453 kts 132°
2026-04-25 22:34 45.29605 6.63956 29082 ft 451 kts 132°
2026-04-25 22:34 45.27554 6.67315 28491 ft 448 kts 131°
2026-04-25 22:34 45.25521 6.70658 27979 ft 445 kts 131°
2026-04-25 22:34 45.23512 6.73973 27584 ft 441 kts 131°
2026-04-25 22:35 45.21524 6.77265 27207 ft 437 kts 131°
2026-04-25 22:35 45.19551 6.80532 26799 ft 434 kts 131°
2026-04-25 22:35 45.17592 6.83775 26377 ft 432 kts 131°
2026-04-25 22:35 45.15638 6.87006 25934 ft 430 kts 131°
2026-04-25 22:36 45.13690 6.90223 25585 ft 427 kts 131°
2026-04-25 22:36 45.11776 6.93380 25344 ft 419 kts 131°
2026-04-25 22:36 45.09916 6.96445 25226 ft 408 kts 130°
2026-04-25 22:36 45.08063 6.99494 25179 ft 412 kts 130°
2026-04-25 22:37 45.06171 7.02605 25042 ft 418 kts 130°
2026-04-25 22:37 45.04276 7.05717 24545 ft 419 kts 130°
2026-04-25 22:37 45.02366 7.08851 24012 ft 419 kts 130°
2026-04-25 22:37 45.00472 7.11974 23624 ft 414 kts 128°
2026-04-25 22:38 44.98960 7.15413 23135 ft 412 kts 112°
2026-04-25 22:38 44.98133 7.19213 22677 ft 409 kts 99°
2026-04-25 22:38 44.97938 7.23183 22277 ft 402 kts 87°
2026-04-25 22:38 44.98033 7.27139 21797 ft 402 kts 87°
2026-04-25 22:39 44.98115 7.31077 21404 ft 401 kts 88°
2026-04-25 22:39 44.98161 7.34998 21069 ft 398 kts 88°
2026-04-25 22:39 44.98183 7.38903 20722 ft 395 kts 90°
2026-04-25 22:39 44.97999 7.42761 20419 ft 393 kts 97°
2026-04-25 22:40 44.97550 7.46468 20280 ft 367 kts 99°
2026-04-25 22:40 44.97107 7.49880 19977 ft 341 kts 99°
2026-04-25 22:40 44.96689 7.53102 19461 ft 326 kts 99°
2026-04-25 22:40 44.96289 7.56234 18795 ft 325 kts 99°
2026-04-25 22:41 44.95895 7.59346 18317 ft 322 kts 98°
2026-04-25 22:41 44.95510 7.62392 17810 ft 310 kts 98°
2026-04-25 22:41 44.95136 7.65364 17363 ft 306 kts 98°
2026-04-25 22:41 44.94766 7.68305 17077 ft 302 kts 99°
2026-04-25 22:42 44.94400 7.71208 16807 ft 298 kts 99°
2026-04-25 22:42 44.94039 7.74077 16491 ft 296 kts 99°
2026-04-25 22:42 44.93683 7.76893 16163 ft 294 kts 99°
2026-04-25 22:42 44.93327 7.79696 16086 ft 285 kts 99°
2026-04-25 22:43 44.92978 7.82438 15934 ft 284 kts 99°
2026-04-25 22:43 44.92646 7.85182 15628 ft 283 kts 96°
2026-04-25 22:43 44.92535 7.87956 15223 ft 284 kts 88°
2026-04-25 22:43 44.92616 7.90753 14827 ft 286 kts 86°
2026-04-25 22:44 44.92744 7.93531 14507 ft 285 kts 85°
2026-04-25 22:44 44.92877 7.96318 14226 ft 283 kts 85°
2026-04-25 22:44 44.93004 7.99085 13954 ft 281 kts 85°
2026-04-25 22:44 44.93124 8.01824 13628 ft 279 kts 86°
2026-04-25 22:45 44.93240 8.04556 13293 ft 278 kts 86°
2026-04-25 22:45 44.93352 8.07280 12963 ft 277 kts 86°
2026-04-25 22:45 44.93460 8.09959 12645 ft 276 kts 86°
2026-04-25 22:45 44.93568 8.12674 12322 ft 275 kts 86°
2026-04-25 22:46 44.93674 8.15362 12008 ft 274 kts 86°
2026-04-25 22:46 44.93779 8.18044 11703 ft 273 kts 86°
2026-04-25 22:46 44.93884 8.20716 11402 ft 272 kts 86°
2026-04-25 22:46 44.93986 8.23383 11096 ft 271 kts 85°
2026-04-25 22:47 44.94088 8.26038 10806 ft 270 kts 85°
2026-04-25 22:47 44.94364 8.28579 10418 ft 265 kts 64°
2026-04-25 22:47 44.95356 8.30754 10001 ft 264 kts 52°
2026-04-25 22:47 44.96461 8.32833 9678 ft 264 kts 52°
2026-04-25 22:48 44.97544 8.34921 9396 ft 262 kts 53°
2026-04-25 22:48 44.98606 8.37007 9095 ft 261 kts 53°
2026-04-25 22:48 44.99657 8.39100 8786 ft 260 kts 54°
2026-04-25 22:48 45.00686 8.41166 8471 ft 259 kts 54°
2026-04-25 22:49 45.01718 8.43245 8186 ft 256 kts 51°
2026-04-25 22:49 45.03079 8.44799 7717 ft 255 kts 20°
2026-04-25 22:49 45.04776 8.45524 7334 ft 255 kts 15°
2026-04-25 22:49 45.06470 8.46222 7082 ft 252 kts 16°
2026-04-25 22:50 45.08149 8.46944 6803 ft 252 kts 17°
2026-04-25 22:50 45.09821 8.47683 6522 ft 251 kts 17°
2026-04-25 22:50 45.11483 8.48431 6237 ft 250 kts 17°
2026-04-25 22:50 45.13143 8.49188 5932 ft 249 kts 18°
2026-04-25 22:51 45.14792 8.49947 5652 ft 248 kts 18°
2026-04-25 22:51 45.16413 8.50698 5362 ft 248 kts 18°
2026-04-25 22:51 45.18050 8.51458 5092 ft 247 kts 18°
2026-04-25 22:51 45.19658 8.52205 5011 ft 239 kts 18°
2026-04-25 22:52 45.21251 8.52865 4962 ft 240 kts
2026-04-25 22:52 45.22930 8.52631 4980 ft 247 kts 347°
2026-04-25 22:52 45.24642 8.52107 4979 ft 253 kts 349°
2026-04-25 22:52 45.25784 8.51783 4952 ft 253 kts 349°
2026-04-25 22:53 45.28052 8.51148 4440 ft 253 kts 349°
2026-04-25 22:53 45.29807 8.50690 3961 ft 256 kts 355°
2026-04-25 22:53 45.31515 8.51065 3412 ft 246 kts 27°
2026-04-25 22:53 45.32762 8.52588 3071 ft 229 kts 55°
2026-04-25 22:54 45.33502 8.54633 2980 ft 237 kts 73°
2026-04-25 22:54 45.33868 8.56902 2960 ft 238 kts 79°
2026-04-25 22:54 45.34165 8.59193 2947 ft 233 kts 79°
2026-04-25 22:54 45.34458 8.61437 2949 ft 229 kts 79°
2026-04-25 22:55 45.34662 8.63666 2964 ft 228 kts 81°
2026-04-25 22:55 45.35025 8.65901 2981 ft 235 kts 74°
2026-04-25 22:55 45.35483 8.68159 2978 ft 237 kts 73°
2026-04-25 22:55 45.35941 8.70367 2952 ft 233 kts 73°
2026-04-25 22:56 45.36400 8.72566 2944 ft 227 kts 73°
2026-04-25 22:56 45.36834 8.74638 2920 ft 207 kts 73°
2026-04-25 22:56 45.37237 8.76550 2942 ft 197 kts 73°
2026-04-25 22:56 45.37624 8.78381 2953 ft 189 kts 71°
2026-04-25 22:57 45.38316 8.79923 2995 ft 190 kts 37°
2026-04-25 22:57 45.39549 8.80507 2961 ft 194 kts 357°
2026-04-25 22:57 45.40837 8.79999 2981 ft 193 kts 340°
2026-04-25 22:57 45.42122 8.79383 2963 ft 195 kts 341°
2026-04-25 22:58 45.43414 8.78839 2972 ft 191 kts 345°
2026-04-25 22:58 45.44700 8.78417 2976 ft 189 kts 348°
2026-04-25 22:58 45.45963 8.78053 2978 ft 188 kts 348°
2026-04-25 22:58 45.47215 8.77705 2975 ft 177 kts 348°
2026-04-25 22:59 45.48392 8.77381 2968 ft 170 kts 348°
2026-04-25 22:59 45.49560 8.77060 2983 ft 171 kts 348°
2026-04-25 22:59 45.50731 8.76737 2915 ft 174 kts 348°
2026-04-25 22:59 45.51886 8.76420 2661 ft 166 kts 348°
2026-04-25 23:00 45.52990 8.76117 2455 ft 154 kts 348°
2026-04-25 23:00 45.54026 8.75831 2265 ft 154 kts 347°
2026-04-25 23:00 45.54739 8.75634 2129 ft 155 kts 347°
2026-04-25 23:00 45.56162 8.75241 1859 ft 158 kts 347°
2026-04-25 23:01 45.56886 8.75042 1683 ft 156 kts 347°
2026-04-25 23:01 45.57942 8.74750 1462 ft 153 kts 348°
2026-04-25 23:01 45.58971 8.74467 1264 ft 151 kts 348°
2026-04-25 23:01 45.59996 8.74184 1070 ft 149 kts 349°
2026-04-25 23:02 45.61015 8.73902 871 ft 148 kts 349°
2026-04-25 23:02 45.62030 8.73621 721 ft 146 kts 349°
2026-04-25 23:02 45.62933 8.73372 733 ft 115 kts 349°
2026-04-25 23:02 45.63591 8.73191 746 ft 67 kts 348°
2026-04-25 23:03 45.63879 8.73113 751 ft 43 kts 349°
2026-04-25 23:03 45.64163 8.73032 754 ft 36 kts 346°
2026-04-25 23:03 45.64335 8.72845 753 ft 23 kts 302°
2026-04-25 23:03 45.64382 8.72739 758 ft 10 kts 302°
2026-04-25 23:04 45.64375 8.72686 759 ft 6 kts 201°
2026-04-25 23:04 45.64324 8.72679 758 ft 8 kts 172°
2026-04-25 23:04 45.64314 8.72682 757 ft 2 kts 169°
2026-04-25 23:04 45.64293 8.72687 759 ft 0 kts 169°
2026-04-25 23:05 45.64288 8.72688 760 ft 2 kts 169°
2026-04-25 23:05 45.64265 8.72696 759 ft 5 kts 168°
2026-04-25 23:05 45.64223 8.72708 759 ft 7 kts 168°
2026-04-25 23:06 45.64164 8.72726 755 ft 10 kts 169°
2026-04-25 23:06 45.64087 8.72747 755 ft 12 kts 170°
2026-04-25 23:06 45.63998 8.72769 756 ft 12 kts 170°
2026-04-25 23:06 45.63923 8.72737 751 ft 9 kts 244°
2026-04-25 23:07 45.63943 8.72648 754 ft 10 kts 298°
2026-04-25 23:07 45.63954 8.72597 754 ft 5 kts 279°
2026-04-25 23:07 45.63955 8.72565 758 ft 0 kts 269°
2026-04-25 23:08 45.63955 8.72562 754 ft 2 kts 269°
2026-04-25 23:08 45.63952 8.72523 756 ft 7 kts 262°
2026-04-25 23:08 45.63945 8.72452 759 ft 7 kts 260°
2026-04-25 23:08 45.63936 8.72382 753 ft 7 kts 260°
2026-04-25 23:09 45.63927 8.72311 762 ft 7 kts 259°
2026-04-25 23:09 45.63920 8.72239 760 ft 7 kts 265°
2026-04-25 23:09 45.63916 8.72154 763 ft 10 kts 266°
2026-04-25 23:09 45.63910 8.72040 756 ft 13 kts 266°
2026-04-25 23:10 45.63896 8.71920 763 ft 12 kts 251°
2026-04-25 23:10 45.63837 8.71834 755 ft 13 kts 200°
2026-04-25 23:10 45.63743 8.71846 758 ft 15 kts 167°
2026-04-25 23:10 45.63632 8.71872 757 ft 17 kts 168°
2026-04-25 23:11 45.63509 8.71907 754 ft 19 kts 168°
2026-04-25 23:11 45.63413 8.71935 752 ft 0 kts 169°
2026-04-25 23:11 45.63412 8.71935 752 ft 1 kts 169°
2026-04-25 23:11 45.63366 8.71947 751 ft 11 kts 170°
2026-04-25 23:12 45.63312 8.71893 749 ft 11 kts 257°
2026-04-25 23:12 45.63293 8.71781 749 ft 12 kts 258°
2026-04-25 23:12 45.63261 8.71689 746 ft 11 kts 217°
2026-04-25 23:12 45.63186 8.71683 748 ft 11 kts 171°
2026-04-25 23:13 45.63132 8.71697 745 ft 3 kts 172°
2026-04-25 23:13 45.63109 8.71680 744 ft 5 kts 223°
2026-04-25 23:13 45.63090 8.71632 744 ft 6 kts 259°
2026-04-25 23:13 45.63085 8.71600 743 ft 0 kts 257°